Time,TemperatureF,DewpointF,PressureIn,WindDirection,WindDirectionDegrees,WindSpeedMPH,WindSpeedGustMPH,Humidity,HourlyPrecipIn,Conditions,Clouds,dailyrainin,SoftwareType,DateUTC
2013-08-27 00:00:00,74.6,66.5,29.90,West,271,3.0,13.0,76,0.00,,,0.00,VWS V14.01,2013-08-27 04:00:00,
2013-08-27 00:01:00,74.4,66.3,29.90,WSW,256,8.0,13.0,76,0.00,,,0.00,VWS V14.01,2013-08-27 04:01:00,
2013-08-27 00:02:00,74.4,66.7,29.90,WSW,243,8.0,13.0,77,0.00,,,0.00,VWS V14.01,2013-08-27 04:02:00,
2013-08-27 00:04:00,74.4,66.7,29.90,WSW,242,0.0,13.0,77,0.00,,,0.00,VWS V14.01,2013-08-27 04:04:00,
2013-08-27 00:05:00,74.4,66.7,29.89,WSW,248,6.0,13.0,77,0.00,,,0.00,VWS V14.01,2013-08-27 04:05:00,
2013-08-27 00:08:00,74.2,66.5,29.89,WSW,257,7.0,12.0,77,0.00,,,0.00,VWS V14.01,2013-08-27 04:08:00,
2013-08-27 00:11:00,74.2,66.5,29.89,WSW,248,2.0,12.0,77,0.00,,,0.00,VWS V14.01,2013-08-27 04:11:00,
2013-08-27 00:12:00,74.2,66.5,29.89,West,278,8.0,12.0,77,0.00,,,0.00,VWS V14.01,2013-08-27 04:12:00,
2013-08-27 00:13:00,74.2,66.5,29.89,WSW,247,6.0,12.0,77,0.00,,,0.00,VWS V14.01,2013-08-27 04:13:00,
2013-08-27 00:14:00,74.2,66.5,29.89,West,267,5.0,12.0,77,0.00,,,0.00,VWS V14.01,2013-08-27 04:14:00,
2013-08-27 00:17:00,74.2,66.5,29.89,West,265,4.0,12.0,77,0.00,,,0.00,VWS V14.01,2013-08-27 04:17:00,
2013-08-27 00:18:00,74.2,66.5,29.89,WSW,246,3.0,12.0,77,0.00,,,0.00,VWS V14.01,2013-08-27 04:18:00,
2013-08-27 00:20:00,74.2,66.5,29.88,WSW,248,5.0,12.0,77,0.01,,,0.01,VWS V14.01,2013-08-27 04:20:00,
2013-08-27 00:21:00,74.2,66.5,29.88,SW,225,8.0,12.0,77,0.01,,,0.01,VWS V14.01,2013-08-27 04:21:00,
2013-08-27 00:23:00,74.0,66.3,29.88,WSW,240,6.0,12.0,77,0.01,,,0.01,VWS V14.01,2013-08-27 04:23:00,
2013-08-27 00:25:00,74.0,66.7,29.88,WSW,257,3.0,12.0,78,0.01,,,0.01,VWS V14.01,2013-08-27 04:25:00,
2013-08-27 00:28:00,74.0,66.3,29.88,WSW,257,7.0,12.0,77,0.01,,,0.01,VWS V14.01,2013-08-27 04:28:00,
2013-08-27 00:29:00,74.0,66.3,29.88,WSW,240,7.0,12.0,77,0.01,,,0.01,VWS V14.01,2013-08-27 04:29:00,
2013-08-27 00:30:00,74.0,66.3,29.88,WSW,241,0.0,12.0,77,0.01,,,0.01,VWS V14.01,2013-08-27 04:30:00,
2013-08-27 00:33:00,74.0,66.7,29.88,West,268,4.0,12.0,78,0.01,,,0.01,VWS V14.01,2013-08-27 04:33:00,
2013-08-27 00:34:00,74.0,66.7,29.88,WSW,257,5.0,12.0,78,0.01,,,0.01,VWS V14.01,2013-08-27 04:34:00,
2013-08-27 00:35:00,74.0,66.7,29.88,West,265,1.0,12.0,78,0.01,,,0.01,VWS V14.01,2013-08-27 04:35:00,
2013-08-27 00:36:00,73.9,66.6,29.88,WSW,246,7.0,12.0,78,0.01,,,0.01,VWS V14.01,2013-08-27 04:36:00,
2013-08-27 00:39:00,73.9,66.6,29.88,SW,236,10.0,12.0,78,0.01,,,0.01,VWS V14.01,2013-08-27 04:39:00,
2013-08-27 00:41:00,73.9,66.6,29.88,West,274,5.0,12.0,78,0.01,,,0.01,VWS V14.01,2013-08-27 04:41:00,
2013-08-27 00:44:00,73.7,66.4,29.88,WSW,257,14.0,17.0,78,0.01,,,0.01,VWS V14.01,2013-08-27 04:44:00,
2013-08-27 00:46:00,73.7,66.4,29.88,WSW,237,4.0,17.0,78,0.01,,,0.01,VWS V14.01,2013-08-27 04:46:00,
2013-08-27 00:47:00,73.7,66.8,29.88,WSW,237,0.0,17.0,79,0.01,,,0.01,VWS V14.01,2013-08-27 04:47:00,
2013-08-27 00:48:00,73.7,66.8,29.88,SW,228,0.0,17.0,79,0.01,,,0.01,VWS V14.01,2013-08-27 04:48:00,
2013-08-27 00:50:00,73.7,66.8,29.88,WSW,237,4.0,17.0,79,0.01,,,0.01,VWS V14.01,2013-08-27 04:50:00,
2013-08-27 00:52:00,73.7,66.8,29.88,West,259,4.0,17.0,79,0.01,,,0.01,VWS V14.01,2013-08-27 04:52:00,
2013-08-27 00:53:00,73.7,66.8,29.88,WNW,287,11.0,17.0,79,0.01,,,0.01,VWS V14.01,2013-08-27 04:53:00,
2013-08-27 00:55:00,73.7,66.8,29.88,West,269,11.0,17.0,79,0.01,,,0.01,VWS V14.01,2013-08-27 04:55:00,
2013-08-27 00:58:00,73.5,67.0,29.88,WSW,253,7.0,17.0,80,0.01,,,0.01,VWS V14.01,2013-08-27 04:58:00,
2013-08-27 00:59:00,73.5,67.0,29.88,WSW,257,1.0,17.0,80,0.01,,,0.01,VWS V14.01,2013-08-27 04:59:00,
2013-08-27 01:01:00,73.5,67.0,29.88,SW,218,5.0,17.0,80,0.01,,,0.01,VWS V14.01,2013-08-27 05:01:00,
2013-08-27 01:02:00,73.5,67.0,29.88,WSW,248,7.0,17.0,80,0.01,,,0.01,VWS V14.01,2013-08-27 05:02:00,
2013-08-27 01:05:00,73.3,67.1,29.88,West,273,4.0,17.0,81,0.01,,,0.01,VWS V14.01,2013-08-27 05:05:00,
2013-08-27 01:06:00,73.2,67.0,29.88,West,279,10.0,10.0,81,0.01,,,0.01,VWS V14.01,2013-08-27 05:06:00,
2013-08-27 01:07:00,73.2,67.0,29.88,West,279,8.0,11.0,81,0.01,,,0.01,VWS V14.01,2013-08-27 05:07:00,
2013-08-27 01:09:00,73.0,66.8,29.88,West,272,7.0,13.0,81,0.01,,,0.01,VWS V14.01,2013-08-27 05:09:00,
2013-08-27 01:11:00,73.0,67.2,29.88,West,277,10.0,13.0,82,0.01,,,0.01,VWS V14.01,2013-08-27 05:11:00,
2013-08-27 01:12:00,72.8,67.0,29.88,West,271,5.0,13.0,82,0.01,,,0.01,VWS V14.01,2013-08-27 05:12:00,
2013-08-27 01:13:00,72.8,67.0,29.88,WNW,289,2.0,13.0,82,0.01,,,0.01,VWS V14.01,2013-08-27 05:13:00,
2013-08-27 01:14:00,72.7,66.9,29.88,SW,230,6.0,13.0,82,0.01,,,0.01,VWS V14.01,2013-08-27 05:14:00,
2013-08-27 01:15:00,72.7,66.9,29.88,West,281,13.0,13.0,82,0.01,,,0.01,VWS V14.01,2013-08-27 05:15:00,
2013-08-27 01:16:00,72.7,67.2,29.88,WSW,250,7.0,14.0,83,0.01,,,0.01,VWS V14.01,2013-08-27 05:16:00,
2013-08-27 01:20:00,72.5,67.1,29.88,West,271,8.0,16.0,83,0.01,,,0.01,VWS V14.01,2013-08-27 05:20:00,
2013-08-27 01:21:00,72.5,67.1,29.88,West,261,6.0,16.0,83,0.01,,,0.01,VWS V14.01,2013-08-27 05:21:00,
2013-08-27 01:22:00,72.5,67.4,29.88,NW,319,4.0,16.0,84,0.01,,,0.01,VWS V14.01,2013-08-27 05:22:00,
2013-08-27 01:23:00,72.3,67.2,29.88,SW,233,7.0,16.0,84,0.01,,,0.01,VWS V14.01,2013-08-27 05:23:00,
2013-08-27 01:25:00,72.3,67.2,29.88,SW,232,0.0,16.0,84,0.01,,,0.01,VWS V14.01,2013-08-27 05:25:00,
2013-08-27 01:26:00,72.3,67.2,29.88,SW,232,1.0,16.0,84,0.01,,,0.01,VWS V14.01,2013-08-27 05:26:00,
2013-08-27 01:30:00,72.1,67.0,29.88,West,264,6.0,16.0,84,0.01,,,0.01,VWS V14.01,2013-08-27 05:30:00,
2013-08-27 01:31:00,72.1,67.0,29.88,WSW,250,1.0,16.0,84,0.01,,,0.01,VWS V14.01,2013-08-27 05:31:00,
2013-08-27 01:32:00,72.1,67.0,29.88,WSW,258,8.0,16.0,84,0.01,,,0.01,VWS V14.01,2013-08-27 05:32:00,
2013-08-27 01:33:00,72.1,67.3,29.88,WNW,286,8.0,16.0,85,0.01,,,0.01,VWS V14.01,2013-08-27 05:33:00,
2013-08-27 01:35:00,72.0,67.2,29.87,WSW,250,9.0,16.0,85,0.01,,,0.01,VWS V14.01,2013-08-27 05:35:00,
2013-08-27 01:36:00,72.0,67.2,29.87,WSW,257,3.0,10.0,85,0.00,,,0.01,VWS V14.01,2013-08-27 05:36:00,
2013-08-27 01:39:00,72.0,67.2,29.87,WSW,257,6.0,10.0,85,0.00,,,0.01,VWS V14.01,2013-08-27 05:39:00,
2013-08-27 01:40:00,72.0,67.2,29.87,WSW,244,11.0,11.0,85,0.00,,,0.01,VWS V14.01,2013-08-27 05:40:00,
2013-08-27 01:42:00,72.0,67.2,29.87,West,279,4.0,11.0,85,0.00,,,0.01,VWS V14.01,2013-08-27 05:42:00,
2013-08-27 01:44:00,71.8,67.4,29.87,West,266,6.0,16.0,86,0.00,,,0.01,VWS V14.01,2013-08-27 05:44:00,
2013-08-27 01:45:00,71.8,67.4,29.87,West,274,6.0,16.0,86,0.00,,,0.01,VWS V14.01,2013-08-27 05:45:00,
2013-08-27 01:49:00,71.8,67.4,29.87,West,264,6.0,16.0,86,0.00,,,0.01,VWS V14.01,2013-08-27 05:49:00,
2013-08-27 01:51:00,71.8,67.4,29.86,WSW,241,7.0,16.0,86,0.00,,,0.01,VWS V14.01,2013-08-27 05:51:00,
2013-08-27 01:53:00,71.8,67.4,29.86,WSW,243,13.0,16.0,86,0.00,,,0.01,VWS V14.01,2013-08-27 05:53:00,
2013-08-27 01:54:00,71.8,67.4,29.86,WSW,244,0.0,16.0,86,0.00,,,0.01,VWS V14.01,2013-08-27 05:54:00,
2013-08-27 01:56:00,71.8,67.4,29.86,WSW,250,8.0,16.0,86,0.00,,,0.01,VWS V14.01,2013-08-27 05:56:00,
2013-08-27 01:57:00,71.8,67.4,29.86,WSW,237,6.0,16.0,86,0.00,,,0.01,VWS V14.01,2013-08-27 05:57:00,
2013-08-27 01:58:00,71.8,67.4,29.86,WSW,239,3.0,16.0,86,0.00,,,0.01,VWS V14.01,2013-08-27 05:58:00,
2013-08-27 02:00:00,71.8,67.4,29.86,WSW,241,12.0,16.0,86,0.00,,,0.01,VWS V14.01,2013-08-27 06:00:00,
2013-08-27 02:02:00,71.8,67.4,29.86,West,271,3.0,16.0,86,0.01,,,0.02,VWS V14.01,2013-08-27 06:02:00,
2013-08-27 02:03:00,71.8,67.4,29.86,WSW,241,4.0,16.0,86,0.01,,,0.02,VWS V14.01,2013-08-27 06:03:00,
2013-08-27 02:05:00,71.8,67.7,29.86,WSW,252,6.0,16.0,87,0.01,,,0.02,VWS V14.01,2013-08-27 06:05:00,
2013-08-27 02:06:00,71.8,67.7,29.86,West,267,9.0,10.0,87,0.01,,,0.02,VWS V14.01,2013-08-27 06:06:00,
2013-08-27 02:07:00,71.8,67.7,29.86,West,279,6.0,10.0,87,0.01,,,0.02,VWS V14.01,2013-08-27 06:07:00,
2013-08-27 02:09:00,71.8,67.7,29.86,West,264,9.0,10.0,87,0.01,,,0.02,VWS V14.01,2013-08-27 06:09:00,
2013-08-27 02:11:00,71.6,67.5,29.86,WSW,240,0.0,15.0,87,0.01,,,0.02,VWS V14.01,2013-08-27 06:11:00,
2013-08-27 02:12:00,71.6,67.5,29.86,WSW,240,0.0,15.0,87,0.01,,,0.02,VWS V14.01,2013-08-27 06:12:00,
2013-08-27 02:15:00,71.6,67.5,29.86,WSW,246,2.0,15.0,87,0.01,,,0.02,VWS V14.01,2013-08-27 06:15:00,
2013-08-27 02:17:00,71.6,67.9,29.86,West,263,0.0,15.0,88,0.01,,,0.02,VWS V14.01,2013-08-27 06:17:00,
2013-08-27 02:18:00,71.5,67.8,29.86,West,263,3.0,15.0,88,0.01,,,0.02,VWS V14.01,2013-08-27 06:18:00,
2013-08-27 02:19:00,71.5,67.8,29.86,WSW,248,7.0,15.0,88,0.01,,,0.02,VWS V14.01,2013-08-27 06:19:00,
2013-08-27 02:22:00,71.5,67.8,29.85,WSW,256,8.0,15.0,88,0.01,,,0.02,VWS V14.01,2013-08-27 06:22:00,
2013-08-27 02:25:00,71.5,67.8,29.85,West,265,10.0,15.0,88,0.01,,,0.02,VWS V14.01,2013-08-27 06:25:00,
2013-08-27 02:27:00,71.3,67.6,29.85,WSW,255,9.0,15.0,88,0.01,,,0.02,VWS V14.01,2013-08-27 06:27:00,
2013-08-27 02:29:00,71.3,67.6,29.85,West,267,9.0,15.0,88,0.01,,,0.02,VWS V14.01,2013-08-27 06:29:00,
2013-08-27 02:31:00,71.3,67.6,29.85,West,269,5.0,15.0,88,0.01,,,0.02,VWS V14.01,2013-08-27 06:31:00,
2013-08-27 02:32:00,71.3,67.6,29.85,West,261,7.0,15.0,88,0.01,,,0.02,VWS V14.01,2013-08-27 06:32:00,
2013-08-27 02:33:00,71.3,67.6,29.85,WSW,242,5.0,15.0,88,0.01,,,0.02,VWS V14.01,2013-08-27 06:33:00,
2013-08-27 02:34:00,71.3,67.6,29.85,West,269,8.0,15.0,88,0.01,,,0.02,VWS V14.01,2013-08-27 06:34:00,
2013-08-27 02:35:00,71.3,67.6,29.85,West,267,11.0,15.0,88,0.01,,,0.02,VWS V14.01,2013-08-27 06:35:00,
2013-08-27 02:36:00,71.3,67.6,29.85,West,269,10.0,14.0,88,0.01,,,0.02,VWS V14.01,2013-08-27 06:36:00,
2013-08-27 02:37:00,71.3,67.6,29.85,WNW,287,9.0,15.0,88,0.01,,,0.02,VWS V14.01,2013-08-27 06:37:00,
2013-08-27 02:40:00,71.3,67.6,29.85,WSW,247,6.0,15.0,88,0.01,,,0.02,VWS V14.01,2013-08-27 06:40:00,
2013-08-27 02:41:00,71.3,67.6,29.85,WSW,257,10.0,15.0,88,0.01,,,0.02,VWS V14.01,2013-08-27 06:41:00,
2013-08-27 02:42:00,71.3,67.6,29.85,WNW,292,7.0,15.0,88,0.01,,,0.02,VWS V14.01,2013-08-27 06:42:00,
2013-08-27 02:43:00,71.3,67.6,29.85,West,265,6.0,15.0,88,0.01,,,0.02,VWS V14.01,2013-08-27 06:43:00,
2013-08-27 02:48:00,71.5,67.8,29.85,West,262,7.0,15.0,88,0.01,,,0.02,VWS V14.01,2013-08-27 06:48:00,
2013-08-27 02:49:00,71.5,67.8,29.85,West,263,6.0,15.0,88,0.01,,,0.02,VWS V14.01,2013-08-27 06:49:00,
2013-08-27 02:51:00,71.5,67.8,29.85,WNW,284,5.0,15.0,88,0.01,,,0.02,VWS V14.01,2013-08-27 06:51:00,
2013-08-27 02:53:00,71.5,67.8,29.85,West,281,1.0,15.0,88,0.01,,,0.02,VWS V14.01,2013-08-27 06:53:00,
2013-08-27 02:55:00,71.5,67.8,29.85,West,272,7.0,15.0,88,0.01,,,0.02,VWS V14.01,2013-08-27 06:55:00,
2013-08-27 02:56:00,71.5,67.8,29.85,West,277,6.0,15.0,88,0.01,,,0.02,VWS V14.01,2013-08-27 06:56:00,
2013-08-27 02:57:00,71.5,67.8,29.85,West,281,6.0,15.0,88,0.01,,,0.02,VWS V14.01,2013-08-27 06:57:00,
2013-08-27 03:01:00,71.5,67.8,29.85,West,262,6.0,15.0,88,0.02,,,0.03,VWS V14.01,2013-08-27 07:01:00,
2013-08-27 03:02:00,71.5,67.8,29.85,West,273,5.0,15.0,88,0.02,,,0.03,VWS V14.01,2013-08-27 07:02:00,
2013-08-27 03:03:00,71.5,67.8,29.85,West,273,5.0,15.0,88,0.02,,,0.03,VWS V14.01,2013-08-27 07:03:00,
2013-08-27 03:05:00,71.5,67.8,29.84,WSW,255,4.0,15.0,88,0.02,,,0.03,VWS V14.01,2013-08-27 07:05:00,
2013-08-27 03:06:00,71.5,68.1,29.84,WNW,285,8.0,8.0,89,0.01,,,0.03,VWS V14.01,2013-08-27 07:06:00,
2013-08-27 03:09:00,71.5,68.1,29.84,West,272,0.0,11.0,89,0.01,,,0.03,VWS V14.01,2013-08-27 07:09:00,
2013-08-27 03:10:00,71.5,68.1,29.84,West,272,7.0,11.0,89,0.01,,,0.03,VWS V14.01,2013-08-27 07:10:00,
2013-08-27 03:12:00,71.3,67.9,29.84,WSW,251,7.0,11.0,89,0.01,,,0.03,VWS V14.01,2013-08-27 07:12:00,
2013-08-27 03:13:00,71.3,67.9,29.84,West,263,6.0,11.0,89,0.01,,,0.03,VWS V14.01,2013-08-27 07:13:00,
2013-08-27 03:15:00,71.3,67.9,29.84,West,261,4.0,11.0,89,0.01,,,0.03,VWS V14.01,2013-08-27 07:15:00,
2013-08-27 03:17:00,71.3,67.9,29.84,West,262,5.0,11.0,89,0.01,,,0.03,VWS V14.01,2013-08-27 07:17:00,
2013-08-27 03:20:00,71.3,67.9,29.83,West,266,3.0,11.0,89,0.01,,,0.03,VWS V14.01,2013-08-27 07:20:00,
2013-08-27 03:21:00,71.3,67.9,29.83,SW,233,6.0,11.0,89,0.01,,,0.03,VWS V14.01,2013-08-27 07:21:00,
2013-08-27 03:22:00,71.3,67.9,29.83,SW,235,5.0,11.0,89,0.01,,,0.03,VWS V14.01,2013-08-27 07:22:00,
2013-08-27 03:27:00,71.3,68.2,29.83,West,267,0.0,11.0,90,0.01,,,0.03,VWS V14.01,2013-08-27 07:27:00,
2013-08-27 03:30:00,71.3,68.2,29.83,West,269,6.0,11.0,90,0.01,,,0.03,VWS V14.01,2013-08-27 07:30:00,
2013-08-27 03:34:00,71.1,68.0,29.83,West,263,4.0,11.0,90,0.01,,,0.03,VWS V14.01,2013-08-27 07:34:00,
2013-08-27 03:35:00,71.1,68.0,29.83,West,259,3.0,5.0,90,0.01,,,0.03,VWS V14.01,2013-08-27 07:35:00,
2013-08-27 03:37:00,71.1,68.0,29.83,SW,227,6.0,7.0,90,0.01,,,0.03,VWS V14.01,2013-08-27 07:37:00,
2013-08-27 03:38:00,71.1,68.0,29.83,SW,227,4.0,7.0,90,0.01,,,0.03,VWS V14.01,2013-08-27 07:38:00,
2013-08-27 03:41:00,71.1,68.0,29.83,SW,228,5.0,7.0,90,0.01,,,0.03,VWS V14.01,2013-08-27 07:41:00,
2013-08-27 03:42:00,71.1,68.0,29.83,WSW,240,7.0,8.0,90,0.01,,,0.03,VWS V14.01,2013-08-27 07:42:00,
2013-08-27 03:45:00,71.1,68.3,29.83,WSW,241,3.0,8.0,91,0.01,,,0.03,VWS V14.01,2013-08-27 07:45:00,
2013-08-27 03:47:00,71.1,68.3,29.83,WSW,241,5.0,8.0,91,0.01,,,0.03,VWS V14.01,2013-08-27 07:47:00,
2013-08-27 03:48:00,71.1,68.3,29.83,WSW,242,0.0,10.0,91,0.01,,,0.03,VWS V14.01,2013-08-27 07:48:00,
2013-08-27 03:50:00,70.9,68.2,29.82,SW,226,3.0,10.0,91,0.01,,,0.03,VWS V14.01,2013-08-27 07:50:00,
2013-08-27 03:51:00,70.9,68.2,29.82,WSW,241,7.0,10.0,91,0.01,,,0.03,VWS V14.01,2013-08-27 07:51:00,
2013-08-27 03:52:00,70.9,68.2,29.82,WSW,245,6.0,10.0,91,0.01,,,0.03,VWS V14.01,2013-08-27 07:52:00,
2013-08-27 03:53:00,70.9,68.2,29.82,WSW,240,7.0,10.0,91,0.01,,,0.03,VWS V14.01,2013-08-27 07:53:00,
2013-08-27 03:57:00,70.9,68.2,29.82,SW,236,0.0,10.0,91,0.01,,,0.03,VWS V14.01,2013-08-27 07:57:00,
2013-08-27 03:58:00,70.9,68.2,29.82,SW,235,6.0,10.0,91,0.01,,,0.03,VWS V14.01,2013-08-27 07:58:00,
2013-08-27 04:01:00,70.9,68.2,29.82,SW,236,0.0,10.0,91,0.01,,,0.03,VWS V14.01,2013-08-27 08:01:00,
2013-08-27 04:02:00,70.9,68.2,29.82,WSW,248,6.0,10.0,91,0.01,,,0.03,VWS V14.01,2013-08-27 08:02:00,
2013-08-27 04:04:00,70.9,68.2,29.81,WSW,248,0.0,10.0,91,0.01,,,0.03,VWS V14.01,2013-08-27 08:04:00,
2013-08-27 04:09:00,70.9,68.2,29.81,WSW,241,4.0,12.0,91,0.00,,,0.03,VWS V14.01,2013-08-27 08:09:00,
2013-08-27 04:10:00,70.9,68.2,29.81,WSW,258,2.0,12.0,91,0.00,,,0.03,VWS V14.01,2013-08-27 08:10:00,
2013-08-27 04:11:00,70.9,68.2,29.81,WSW,258,4.0,12.0,91,0.00,,,0.03,VWS V14.01,2013-08-27 08:11:00,
2013-08-27 04:14:00,70.9,68.2,29.81,West,263,4.0,12.0,91,0.00,,,0.03,VWS V14.01,2013-08-27 08:14:00,
2013-08-27 04:15:00,70.9,68.2,29.81,West,261,0.0,12.0,91,0.00,,,0.03,VWS V14.01,2013-08-27 08:15:00,
2013-08-27 04:17:00,71.1,68.3,29.81,West,259,5.0,12.0,91,0.00,,,0.03,VWS V14.01,2013-08-27 08:17:00,
2013-08-27 04:21:00,71.1,68.3,29.80,West,267,3.0,12.0,91,0.00,,,0.03,VWS V14.01,2013-08-27 08:21:00,
2013-08-27 04:22:00,71.1,68.0,29.80,West,263,5.0,12.0,90,0.00,,,0.03,VWS V14.01,2013-08-27 08:22:00,
2013-08-27 04:24:00,71.1,68.0,29.80,West,265,7.0,12.0,90,0.00,,,0.03,VWS V14.01,2013-08-27 08:24:00,
2013-08-27 04:26:00,71.1,68.0,29.80,West,262,0.0,12.0,90,0.00,,,0.03,VWS V14.01,2013-08-27 08:26:00,
2013-08-27 04:29:00,71.3,68.2,29.80,WNW,292,1.0,12.0,90,0.00,,,0.03,VWS V14.01,2013-08-27 08:29:00,
2013-08-27 04:30:00,71.3,68.2,29.80,West,261,6.0,12.0,90,0.00,,,0.03,VWS V14.01,2013-08-27 08:30:00,
2013-08-27 04:32:00,71.3,68.2,29.80,West,275,6.0,12.0,90,0.00,,,0.03,VWS V14.01,2013-08-27 08:32:00,
2013-08-27 04:34:00,71.3,68.2,29.80,West,268,5.0,12.0,90,0.00,,,0.03,VWS V14.01,2013-08-27 08:34:00,
2013-08-27 04:35:00,71.3,68.2,29.80,West,263,8.0,8.0,90,0.00,,,0.03,VWS V14.01,2013-08-27 08:35:00,
2013-08-27 04:38:00,71.3,68.2,29.80,West,263,9.0,13.0,90,0.00,,,0.03,VWS V14.01,2013-08-27 08:38:00,
2013-08-27 04:40:00,71.3,68.2,29.80,West,266,9.0,13.0,90,0.00,,,0.03,VWS V14.01,2013-08-27 08:40:00,
2013-08-27 04:42:00,71.3,68.2,29.80,West,259,9.0,13.0,90,0.00,,,0.03,VWS V14.01,2013-08-27 08:42:00,
2013-08-27 04:43:00,71.3,68.2,29.80,WSW,258,6.0,13.0,90,0.00,,,0.03,VWS V14.01,2013-08-27 08:43:00,
2013-08-27 04:45:00,71.3,68.2,29.80,WSW,246,4.0,13.0,90,0.00,,,0.03,VWS V14.01,2013-08-27 08:45:00,
2013-08-27 04:48:00,71.3,68.2,29.80,WSW,252,2.0,13.0,90,0.00,,,0.03,VWS V14.01,2013-08-27 08:48:00,
2013-08-27 04:49:00,71.3,68.2,29.80,West,263,13.0,13.0,90,0.00,,,0.03,VWS V14.01,2013-08-27 08:49:00,
2013-08-27 04:51:00,71.3,68.2,29.80,WSW,257,7.0,13.0,90,0.00,,,0.03,VWS V14.01,2013-08-27 08:51:00,
2013-08-27 04:52:00,71.3,68.2,29.80,West,263,4.0,13.0,90,0.00,,,0.03,VWS V14.01,2013-08-27 08:52:00,
2013-08-27 04:56:00,71.3,67.9,29.80,WSW,253,9.0,13.0,89,0.00,,,0.03,VWS V14.01,2013-08-27 08:56:00,
2013-08-27 04:58:00,71.3,67.9,29.80,West,263,4.0,13.0,89,0.00,,,0.03,VWS V14.01,2013-08-27 08:58:00,
2013-08-27 04:59:00,71.3,67.9,29.80,West,260,9.0,13.0,89,0.00,,,0.03,VWS V14.01,2013-08-27 08:59:00,
2013-08-27 05:01:00,71.3,67.9,29.80,West,281,6.0,13.0,89,0.00,,,0.03,VWS V14.01,2013-08-27 09:01:00,
2013-08-27 05:04:00,71.3,67.9,29.80,West,266,2.0,13.0,89,0.00,,,0.03,VWS V14.01,2013-08-27 09:04:00,
2013-08-27 05:05:00,71.3,67.9,29.80,West,263,8.0,13.0,89,0.00,,,0.03,VWS V14.01,2013-08-27 09:05:00,
2013-08-27 05:06:00,71.3,67.9,29.80,West,269,7.0,8.0,89,0.00,,,0.03,VWS V14.01,2013-08-27 09:06:00,
2013-08-27 05:10:00,71.5,68.1,29.80,West,259,8.0,15.0,89,0.00,,,0.03,VWS V14.01,2013-08-27 09:10:00,
2013-08-27 05:11:00,71.5,68.1,29.80,West,273,3.0,15.0,89,0.00,,,0.03,VWS V14.01,2013-08-27 09:11:00,
2013-08-27 05:12:00,71.5,68.1,29.80,West,275,4.0,15.0,89,0.00,,,0.03,VWS V14.01,2013-08-27 09:12:00,
2013-08-27 05:13:00,71.5,68.1,29.80,WSW,257,5.0,15.0,89,0.00,,,0.03,VWS V14.01,2013-08-27 09:13:00,
2013-08-27 05:17:00,71.5,68.1,29.80,West,261,6.0,15.0,89,0.00,,,0.03,VWS V14.01,2013-08-27 09:17:00,
2013-08-27 05:18:00,71.5,67.8,29.80,West,273,6.0,15.0,88,0.00,,,0.03,VWS V14.01,2013-08-27 09:18:00,
2013-08-27 05:20:00,71.5,67.8,29.80,West,262,6.0,15.0,88,0.00,,,0.03,VWS V14.01,2013-08-27 09:20:00,
2013-08-27 05:22:00,71.6,67.9,29.80,West,269,6.0,15.0,88,0.00,,,0.03,VWS V14.01,2013-08-27 09:22:00,
2013-08-27 05:23:00,71.6,67.9,29.80,West,269,3.0,15.0,88,0.00,,,0.03,VWS V14.01,2013-08-27 09:23:00,
2013-08-27 05:27:00,71.6,67.9,29.80,West,281,6.0,15.0,88,0.00,,,0.03,VWS V14.01,2013-08-27 09:27:00,
2013-08-27 05:30:00,71.6,67.9,29.80,West,268,7.0,15.0,88,0.00,,,0.03,VWS V14.01,2013-08-27 09:30:00,
2013-08-27 05:31:00,71.6,67.9,29.80,West,278,8.0,15.0,88,0.00,,,0.03,VWS V14.01,2013-08-27 09:31:00,
2013-08-27 05:32:00,71.6,67.9,29.80,WSW,244,5.0,15.0,88,0.00,,,0.03,VWS V14.01,2013-08-27 09:32:00,
2013-08-27 05:33:00,71.6,67.9,29.80,WNW,285,1.0,15.0,88,0.00,,,0.03,VWS V14.01,2013-08-27 09:33:00,
2013-08-27 05:36:00,71.6,67.9,29.80,West,267,9.0,12.0,88,0.00,,,0.03,VWS V14.01,2013-08-27 09:36:00,
2013-08-27 05:38:00,71.8,68.1,29.80,West,262,6.0,12.0,88,0.00,,,0.03,VWS V14.01,2013-08-27 09:38:00,
2013-08-27 05:41:00,71.6,67.9,29.80,West,262,8.0,12.0,88,0.00,,,0.03,VWS V14.01,2013-08-27 09:41:00,
2013-08-27 05:43:00,71.6,67.9,29.80,WSW,256,4.0,12.0,88,0.00,,,0.03,VWS V14.01,2013-08-27 09:43:00,
2013-08-27 05:46:00,71.6,67.9,29.80,West,281,3.0,13.0,88,0.00,,,0.03,VWS V14.01,2013-08-27 09:46:00,
2013-08-27 05:49:00,71.6,67.9,29.80,West,280,4.0,13.0,88,0.00,,,0.03,VWS V14.01,2013-08-27 09:49:00,
2013-08-27 05:51:00,71.6,67.9,29.80,WNW,288,0.0,13.0,88,0.00,,,0.03,VWS V14.01,2013-08-27 09:51:00,
2013-08-27 05:53:00,71.6,67.9,29.80,West,278,11.0,13.0,88,0.00,,,0.03,VWS V14.01,2013-08-27 09:53:00,
2013-08-27 05:55:00,71.6,67.9,29.80,West,281,8.0,13.0,88,0.00,,,0.03,VWS V14.01,2013-08-27 09:55:00,
2013-08-27 05:59:00,71.6,67.9,29.80,West,268,2.0,13.0,88,0.00,,,0.03,VWS V14.01,2013-08-27 09:59:00,
2013-08-27 06:00:00,71.6,67.9,29.80,West,275,5.0,13.0,88,0.00,,,0.03,VWS V14.01,2013-08-27 10:00:00,
2013-08-27 06:04:00,71.6,67.9,29.80,West,264,6.0,13.0,88,0.00,,,0.03,VWS V14.01,2013-08-27 10:04:00,
2013-08-27 06:05:00,71.6,67.9,29.80,WNW,284,4.0,13.0,88,0.00,,,0.03,VWS V14.01,2013-08-27 10:05:00,
2013-08-27 06:07:00,71.6,67.9,29.80,WSW,258,2.0,9.0,88,0.00,,,0.03,VWS V14.01,2013-08-27 10:07:00,
2013-08-27 06:08:00,71.5,67.8,29.80,West,273,5.0,9.0,88,0.00,,,0.03,VWS V14.01,2013-08-27 10:08:00,
2013-08-27 06:10:00,71.5,67.8,29.80,West,267,2.0,10.0,88,0.00,,,0.03,VWS V14.01,2013-08-27 10:10:00,
2013-08-27 06:13:00,71.5,67.8,29.80,WSW,240,10.0,10.0,88,0.00,,,0.03,VWS V14.01,2013-08-27 10:13:00,
2013-08-27 06:14:00,71.5,67.8,29.80,WSW,258,6.0,11.0,88,0.00,,,0.03,VWS V14.01,2013-08-27 10:14:00,
2013-08-27 06:15:00,71.5,67.8,29.80,West,263,2.0,11.0,88,0.00,,,0.03,VWS V14.01,2013-08-27 10:15:00,
2013-08-27 06:16:00,71.5,67.8,29.80,West,265,7.0,11.0,88,0.00,,,0.03,VWS V14.01,2013-08-27 10:16:00,
2013-08-27 06:18:00,71.5,67.8,29.80,West,271,4.0,14.0,88,0.00,,,0.03,VWS V14.01,2013-08-27 10:18:00,
2013-08-27 06:21:00,71.5,67.8,29.80,West,262,7.0,14.0,88,0.00,,,0.03,VWS V14.01,2013-08-27 10:21:00,
2013-08-27 06:22:00,71.5,67.8,29.80,WNW,285,5.0,14.0,88,0.00,,,0.03,VWS V14.01,2013-08-27 10:22:00,
2013-08-27 06:26:00,71.5,67.8,29.80,West,277,8.0,14.0,88,0.00,,,0.03,VWS V14.01,2013-08-27 10:26:00,
2013-08-27 06:27:00,71.5,67.8,29.80,WSW,252,8.0,14.0,88,0.00,,,0.03,VWS V14.01,2013-08-27 10:27:00,
2013-08-27 06:28:00,71.5,67.8,29.80,West,265,6.0,14.0,88,0.00,,,0.03,VWS V14.01,2013-08-27 10:28:00,
2013-08-27 06:32:00,71.6,67.5,29.80,West,261,9.0,14.0,87,0.00,,,0.03,VWS V14.01,2013-08-27 10:32:00,
2013-08-27 06:33:00,71.6,67.5,29.80,West,262,2.0,14.0,87,0.00,,,0.03,VWS V14.01,2013-08-27 10:33:00,
2013-08-27 06:34:00,71.6,67.5,29.80,West,269,8.0,14.0,87,0.00,,,0.03,VWS V14.01,2013-08-27 10:34:00,
2013-08-27 06:35:00,71.6,67.5,29.80,West,279,2.0,14.0,87,0.00,,,0.03,VWS V14.01,2013-08-27 10:35:00,
2013-08-27 06:36:00,71.6,67.5,29.80,West,271,8.0,8.0,87,0.00,,,0.03,VWS V14.01,2013-08-27 10:36:00,
2013-08-27 06:38:00,71.6,67.5,29.80,WNW,302,3.0,14.0,87,0.00,,,0.03,VWS V14.01,2013-08-27 10:38:00,
2013-08-27 06:41:00,71.8,67.7,29.80,West,261,6.0,14.0,87,0.00,,,0.03,VWS V14.01,2013-08-27 10:41:00,
2013-08-27 06:43:00,71.8,67.7,29.80,West,274,8.0,14.0,87,0.00,,,0.03,VWS V14.01,2013-08-27 10:43:00,
2013-08-27 06:44:00,71.8,67.7,29.80,West,273,4.0,14.0,87,0.00,,,0.03,VWS V14.01,2013-08-27 10:44:00,
2013-08-27 06:46:00,71.8,67.7,29.80,West,275,10.0,14.0,87,0.00,,,0.03,VWS V14.01,2013-08-27 10:46:00,
2013-08-27 06:47:00,71.8,67.7,29.80,West,267,2.0,14.0,87,0.00,,,0.03,VWS V14.01,2013-08-27 10:47:00,
2013-08-27 06:48:00,71.8,67.7,29.80,WSW,256,5.0,14.0,87,0.00,,,0.03,VWS V14.01,2013-08-27 10:48:00,
2013-08-27 06:51:00,72.0,67.6,29.80,West,262,10.0,14.0,86,0.00,,,0.03,VWS V14.01,2013-08-27 10:51:00,
2013-08-27 06:53:00,72.0,67.6,29.80,WNW,294,4.0,14.0,86,0.00,,,0.03,VWS V14.01,2013-08-27 10:53:00,
2013-08-27 06:54:00,72.0,67.6,29.80,West,260,9.0,14.0,86,0.00,,,0.03,VWS V14.01,2013-08-27 10:54:00,
2013-08-27 06:55:00,72.1,67.7,29.80,WNW,286,4.0,14.0,86,0.00,,,0.03,VWS V14.01,2013-08-27 10:55:00,
2013-08-27 06:58:00,72.1,67.7,29.80,West,272,4.0,14.0,86,0.00,,,0.03,VWS V14.01,2013-08-27 10:58:00,
2013-08-27 07:00:00,72.1,67.7,29.80,West,275,7.0,14.0,86,0.00,,,0.03,VWS V14.01,2013-08-27 11:00:00,
2013-08-27 07:04:00,72.3,67.5,29.80,WNW,288,4.0,15.0,85,0.00,,,0.03,VWS V14.01,2013-08-27 11:04:00,
2013-08-27 07:05:00,72.3,67.5,29.80,West,280,5.0,15.0,85,0.00,,,0.03,VWS V14.01,2013-08-27 11:05:00,
2013-08-27 07:06:00,72.3,67.5,29.80,WNW,287,4.0,8.0,85,0.00,,,0.03,VWS V14.01,2013-08-27 11:06:00,
2013-08-27 07:07:00,72.3,67.5,29.80,West,280,9.0,11.0,85,0.00,,,0.03,VWS V14.01,2013-08-27 11:07:00,
2013-08-27 07:09:00,72.5,67.7,29.80,WSW,257,9.0,13.0,85,0.00,,,0.03,VWS V14.01,2013-08-27 11:09:00,
2013-08-27 07:10:00,72.5,67.7,29.80,West,265,10.0,13.0,85,0.00,,,0.03,VWS V14.01,2013-08-27 11:10:00,
2013-08-27 07:12:00,72.5,67.7,29.80,West,263,7.0,13.0,85,0.00,,,0.03,VWS V14.01,2013-08-27 11:12:00,
2013-08-27 07:13:00,72.5,67.7,29.80,WNW,286,8.0,13.0,85,0.00,,,0.03,VWS V14.01,2013-08-27 11:13:00,
2013-08-27 07:15:00,72.7,67.9,29.80,WNW,287,8.0,13.0,85,0.00,,,0.03,VWS V14.01,2013-08-27 11:15:00,
2013-08-27 07:16:00,72.7,67.9,29.80,WNW,284,8.0,13.0,85,0.00,,,0.03,VWS V14.01,2013-08-27 11:16:00,
2013-08-27 07:17:00,72.7,67.9,29.80,WNW,292,3.0,13.0,85,0.00,,,0.03,VWS V14.01,2013-08-27 11:17:00,
2013-08-27 07:20:00,72.7,67.6,29.81,West,269,7.0,13.0,84,0.00,,,0.03,VWS V14.01,2013-08-27 11:20:00,
2013-08-27 07:25:00,72.8,67.7,29.81,West,275,7.0,13.0,84,0.00,,,0.03,VWS V14.01,2013-08-27 11:25:00,
2013-08-27 07:26:00,72.8,67.7,29.81,West,263,7.0,13.0,84,0.00,,,0.03,VWS V14.01,2013-08-27 11:26:00,
2013-08-27 07:27:00,73.0,67.9,29.81,WNW,292,11.0,13.0,84,0.00,,,0.03,VWS V14.01,2013-08-27 11:27:00,
2013-08-27 07:28:00,73.0,67.9,29.81,West,279,7.0,13.0,84,0.00,,,0.03,VWS V14.01,2013-08-27 11:28:00,
2013-08-27 07:30:00,73.0,67.9,29.81,West,275,2.0,13.0,84,0.00,,,0.03,VWS V14.01,2013-08-27 11:30:00,
2013-08-27 07:31:00,73.0,67.9,29.81,WSW,250,6.0,13.0,84,0.00,,,0.03,VWS V14.01,2013-08-27 11:31:00,
2013-08-27 07:33:00,73.0,67.9,29.81,West,269,7.0,13.0,84,0.00,,,0.03,VWS V14.01,2013-08-27 11:33:00,
2013-08-27 07:35:00,73.2,68.1,29.81,West,268,6.0,13.0,84,0.00,,,0.03,VWS V14.01,2013-08-27 11:35:00,
2013-08-27 07:36:00,73.2,68.1,29.81,West,269,3.0,4.0,84,0.00,,,0.03,VWS V14.01,2013-08-27 11:36:00,
2013-08-27 07:38:00,73.2,68.1,29.81,WNW,300,7.0,10.0,84,0.00,,,0.03,VWS V14.01,2013-08-27 11:38:00,
2013-08-27 07:39:00,73.3,68.2,29.81,West,275,8.0,10.0,84,0.00,,,0.03,VWS V14.01,2013-08-27 11:39:00,
2013-08-27 07:40:00,73.3,68.2,29.81,WNW,294,13.0,13.0,84,0.00,,,0.03,VWS V14.01,2013-08-27 11:40:00,
2013-08-27 07:41:00,73.3,67.8,29.81,WNW,286,10.0,16.0,83,0.00,,,0.03,VWS V14.01,2013-08-27 11:41:00,
2013-08-27 07:43:00,73.3,67.8,29.81,WNW,288,7.0,16.0,83,0.00,,,0.03,VWS V14.01,2013-08-27 11:43:00,
2013-08-27 07:44:00,73.5,68.0,29.81,West,277,7.0,16.0,83,0.00,,,0.03,VWS V14.01,2013-08-27 11:44:00,
2013-08-27 07:46:00,73.5,68.0,29.81,NW,305,4.0,16.0,83,0.00,,,0.03,VWS V14.01,2013-08-27 11:46:00,
2013-08-27 07:49:00,73.5,67.7,29.81,WNW,296,7.0,16.0,82,0.00,,,0.03,VWS V14.01,2013-08-27 11:49:00,
2013-08-27 07:50:00,73.7,67.9,29.82,West,280,10.0,16.0,82,0.00,,,0.03,VWS V14.01,2013-08-27 11:50:00,
2013-08-27 07:52:00,73.7,67.9,29.82,WNW,289,8.0,16.0,82,0.00,,,0.03,VWS V14.01,2013-08-27 11:52:00,
2013-08-27 07:53:00,73.7,67.9,29.82,NW,325,7.0,16.0,82,0.00,,,0.03,VWS V14.01,2013-08-27 11:53:00,
2013-08-27 07:55:00,73.9,68.1,29.82,WNW,298,4.0,16.0,82,0.00,,,0.03,VWS V14.01,2013-08-27 11:55:00,
2013-08-27 07:58:00,73.9,68.1,29.82,West,281,5.0,16.0,82,0.00,,,0.03,VWS V14.01,2013-08-27 11:58:00,
2013-08-27 08:01:00,73.9,68.1,29.82,WNW,283,0.0,17.0,82,0.00,,,0.03,VWS V14.01,2013-08-27 12:01:00,
2013-08-27 08:03:00,73.9,68.1,29.82,West,279,11.0,17.0,82,0.00,,,0.03,VWS V14.01,2013-08-27 12:03:00,
2013-08-27 08:04:00,73.9,68.1,29.82,NW,309,11.0,17.0,82,0.00,,,0.03,VWS V14.01,2013-08-27 12:04:00,
2013-08-27 08:05:00,73.9,67.7,29.82,West,281,13.0,17.0,81,0.00,,,0.03,VWS V14.01,2013-08-27 12:05:00,
2013-08-27 08:07:00,74.0,68.2,29.82,West,266,5.0,10.0,82,0.00,,,0.03,VWS V14.01,2013-08-27 12:07:00,
2013-08-27 08:09:00,73.9,67.7,29.82,NNW,334,9.0,14.0,81,0.00,,,0.03,VWS V14.01,2013-08-27 12:09:00,
2013-08-27 08:11:00,73.9,67.7,29.82,WNW,289,8.0,14.0,81,0.00,,,0.03,VWS V14.01,2013-08-27 12:11:00,
2013-08-27 08:12:00,73.9,67.7,29.82,WNW,292,10.0,14.0,81,0.00,,,0.03,VWS V14.01,2013-08-27 12:12:00,
2013-08-27 08:14:00,73.9,67.7,29.82,WNW,300,7.0,16.0,81,0.00,,,0.03,VWS V14.01,2013-08-27 12:14:00,
2013-08-27 08:15:00,73.9,67.7,29.82,WNW,292,5.0,16.0,81,0.00,,,0.03,VWS V14.01,2013-08-27 12:15:00,
2013-08-27 08:16:00,73.9,67.7,29.82,WNW,283,7.0,16.0,81,0.00,,,0.03,VWS V14.01,2013-08-27 12:16:00,
2013-08-27 08:18:00,73.9,68.1,29.82,NW,309,5.0,16.0,82,0.00,,,0.03,VWS V14.01,2013-08-27 12:18:00,
2013-08-27 08:20:00,73.9,67.7,29.82,WNW,286,9.0,16.0,81,0.00,,,0.03,VWS V14.01,2013-08-27 12:20:00,
2013-08-27 08:21:00,73.9,68.1,29.82,WNW,292,6.0,16.0,82,0.00,,,0.03,VWS V14.01,2013-08-27 12:21:00,
2013-08-27 08:22:00,73.9,68.1,29.82,NW,306,5.0,16.0,82,0.00,,,0.03,VWS V14.01,2013-08-27 12:22:00,
2013-08-27 08:23:00,73.9,68.1,29.82,WNW,300,4.0,16.0,82,0.00,,,0.03,VWS V14.01,2013-08-27 12:23:00,
2013-08-27 08:26:00,73.7,67.5,29.82,WNW,292,6.0,16.0,81,0.00,,,0.03,VWS V14.01,2013-08-27 12:26:00,
2013-08-27 08:27:00,73.7,67.9,29.82,NW,322,7.0,16.0,82,0.00,,,0.03,VWS V14.01,2013-08-27 12:27:00,
2013-08-27 08:29:00,73.7,67.9,29.82,WNW,289,12.0,16.0,82,0.00,,,0.03,VWS V14.01,2013-08-27 12:29:00,
2013-08-27 08:31:00,73.7,67.9,29.82,WNW,296,10.0,16.0,82,0.00,,,0.03,VWS V14.01,2013-08-27 12:31:00,
2013-08-27 08:32:00,73.7,68.2,29.82,WNW,286,2.0,16.0,83,0.00,,,0.03,VWS V14.01,2013-08-27 12:32:00,
2013-08-27 08:33:00,73.9,68.4,29.82,WNW,300,6.0,16.0,83,0.00,,,0.03,VWS V14.01,2013-08-27 12:33:00,
2013-08-27 08:35:00,74.4,68.6,29.82,West,265,8.0,16.0,82,0.00,,,0.03,VWS V14.01,2013-08-27 12:35:00,
2013-08-27 08:37:00,74.7,68.1,29.82,NNW,337,10.0,14.0,80,0.00,,,0.03,VWS V14.01,2013-08-27 12:37:00,
2013-08-27 08:38:00,74.9,68.3,29.82,West,279,12.0,14.0,80,0.00,,,0.03,VWS V14.01,2013-08-27 12:38:00,
2013-08-27 08:41:00,75.6,68.3,29.82,WNW,296,7.0,16.0,78,0.00,,,0.03,VWS V14.01,2013-08-27 12:41:00,
2013-08-27 08:44:00,76.1,68.0,29.82,NW,311,3.0,16.0,76,0.00,,,0.03,VWS V14.01,2013-08-27 12:44:00,
2013-08-27 08:46:00,76.7,68.2,29.82,NW,309,7.0,16.0,75,0.00,,,0.03,VWS V14.01,2013-08-27 12:46:00,
2013-08-27 08:47:00,76.8,68.3,29.82,NNW,333,8.0,16.0,75,0.00,,,0.03,VWS V14.01,2013-08-27 12:47:00,
2013-08-27 08:49:00,77.2,68.3,29.82,NW,304,7.0,16.0,74,0.00,,,0.03,VWS V14.01,2013-08-27 12:49:00,
2013-08-27 08:50:00,77.4,68.5,29.82,NW,309,3.0,16.0,74,0.00,,,0.03,VWS V14.01,2013-08-27 12:50:00,
2013-08-27 08:51:00,77.6,68.3,29.82,NW,319,15.0,16.0,73,0.00,,,0.03,VWS V14.01,2013-08-27 12:51:00,
2013-08-27 08:52:00,77.7,68.4,29.82,NW,319,10.0,16.0,73,0.00,,,0.03,VWS V14.01,2013-08-27 12:52:00,
2013-08-27 08:53:00,77.7,68.0,29.82,WNW,297,15.0,16.0,72,0.00,,,0.03,VWS V14.01,2013-08-27 12:53:00,
2013-08-27 08:56:00,77.7,68.8,29.82,NNW,330,8.0,16.0,74,0.00,,,0.03,VWS V14.01,2013-08-27 12:56:00,
2013-08-27 08:57:00,77.7,68.4,29.82,NNW,327,10.0,16.0,73,0.00,,,0.03,VWS V14.01,2013-08-27 12:57:00,
2013-08-27 09:01:00,77.4,68.1,29.82,NW,304,4.0,22.0,73,0.00,,,0.03,VWS V14.01,2013-08-27 13:01:00,
2013-08-27 09:02:00,77.4,68.5,29.82,NNW,331,5.0,22.0,74,0.00,,,0.03,VWS V14.01,2013-08-27 13:02:00,
2013-08-27 09:03:00,77.6,68.3,29.82,NW,307,14.0,22.0,73,0.00,,,0.03,VWS V14.01,2013-08-27 13:03:00,
2013-08-27 09:05:00,77.7,68.4,29.82,NW,317,9.0,22.0,73,0.00,,,0.03,VWS V14.01,2013-08-27 13:05:00,
2013-08-27 09:08:00,77.9,68.2,29.82,NNW,345,10.0,13.0,72,0.00,,,0.03,VWS V14.01,2013-08-27 13:08:00,
2013-08-27 09:10:00,77.9,68.2,29.82,NW,308,6.0,13.0,72,0.00,,,0.03,VWS V14.01,2013-08-27 13:10:00,
2013-08-27 09:11:00,78.1,68.8,29.82,NW,315,3.0,13.0,73,0.00,,,0.03,VWS V14.01,2013-08-27 13:11:00,
2013-08-27 09:12:00,78.1,68.8,29.82,WNW,298,3.0,13.0,73,0.00,,,0.03,VWS V14.01,2013-08-27 13:12:00,
2013-08-27 09:13:00,78.1,68.3,29.82,West,276,12.0,13.0,72,0.00,,,0.03,VWS V14.01,2013-08-27 13:13:00,
2013-08-27 09:16:00,77.9,68.6,29.82,NNW,332,9.0,16.0,73,0.00,,,0.03,VWS V14.01,2013-08-27 13:16:00,
2013-08-27 09:17:00,77.9,68.6,29.82,WNW,302,8.0,16.0,73,0.00,,,0.03,VWS V14.01,2013-08-27 13:17:00,
2013-08-27 09:18:00,78.1,68.3,29.82,WNW,290,7.0,16.0,72,0.00,,,0.03,VWS V14.01,2013-08-27 13:18:00,
2013-08-27 09:22:00,78.1,67.9,29.82,NNE,13,8.0,19.0,71,0.00,,,0.03,VWS V14.01,2013-08-27 13:22:00,
2013-08-27 09:23:00,78.1,67.9,29.82,WNW,286,11.0,19.0,71,0.00,,,0.03,VWS V14.01,2013-08-27 13:23:00,
2013-08-27 09:25:00,77.9,68.2,29.82,North,355,3.0,19.0,72,0.00,,,0.03,VWS V14.01,2013-08-27 13:25:00,
2013-08-27 09:27:00,77.7,68.0,29.82,NW,306,12.0,19.0,72,0.00,,,0.03,VWS V14.01,2013-08-27 13:27:00,
2013-08-27 09:28:00,77.6,67.9,29.82,NNW,340,10.0,19.0,72,0.00,,,0.03,VWS V14.01,2013-08-27 13:28:00,
2013-08-27 09:31:00,77.4,68.1,29.82,NNW,328,11.0,19.0,73,0.00,,,0.03,VWS V14.01,2013-08-27 13:31:00,
2013-08-27 09:33:00,77.4,68.1,29.82,NW,311,6.0,19.0,73,0.00,,,0.03,VWS V14.01,2013-08-27 13:33:00,
2013-08-27 09:35:00,77.2,67.9,29.82,WNW,296,10.0,19.0,73,0.00,,,0.03,VWS V14.01,2013-08-27 13:35:00,
2013-08-27 09:38:00,77.0,67.7,29.82,NW,311,11.0,13.0,73,0.00,,,0.03,VWS V14.01,2013-08-27 13:38:00,
2013-08-27 09:39:00,77.0,68.1,29.82,WNW,293,12.0,14.0,74,0.00,,,0.03,VWS V14.01,2013-08-27 13:39:00,
2013-08-27 09:40:00,77.0,67.7,29.82,NW,319,17.0,17.0,73,0.00,,,0.03,VWS V14.01,2013-08-27 13:40:00,
2013-08-27 09:42:00,76.8,67.5,29.82,WNW,302,12.0,20.0,73,0.00,,,0.03,VWS V14.01,2013-08-27 13:42:00,
2013-08-27 09:45:00,76.7,67.4,29.82,North,355,7.0,20.0,73,0.00,,,0.03,VWS V14.01,2013-08-27 13:45:00,
2013-08-27 09:47:00,76.7,67.8,29.82,NW,320,7.0,20.0,74,0.00,,,0.03,VWS V14.01,2013-08-27 13:47:00,
2013-08-27 09:48:00,76.7,67.8,29.82,NNW,339,2.0,20.0,74,0.00,,,0.03,VWS V14.01,2013-08-27 13:48:00,
2013-08-27 09:51:00,76.7,67.8,29.82,NW,322,2.0,20.0,74,0.00,,,0.03,VWS V14.01,2013-08-27 13:51:00,
2013-08-27 09:52:00,76.8,68.3,29.82,NW,321,3.0,20.0,75,0.00,,,0.03,VWS V14.01,2013-08-27 13:52:00,
2013-08-27 09:55:00,77.2,67.9,29.82,NNW,344,14.0,20.0,73,0.00,,,0.03,VWS V14.01,2013-08-27 13:55:00,
2013-08-27 09:56:00,77.6,68.3,29.82,North,360,2.0,20.0,73,0.00,,,0.03,VWS V14.01,2013-08-27 13:56:00,
2013-08-27 09:58:00,78.1,68.3,29.82,North,355,14.0,20.0,72,0.00,,,0.03,VWS V14.01,2013-08-27 13:58:00,
2013-08-27 10:00:00,78.3,67.3,29.82,NNW,348,10.0,20.0,69,0.00,,,0.03,VWS V14.01,2013-08-27 14:00:00,
2013-08-27 10:01:00,78.3,67.7,29.82,NNW,332,9.0,20.0,70,0.00,,,0.03,VWS V14.01,2013-08-27 14:01:00,
2013-08-27 10:02:00,78.3,67.7,29.82,NW,326,12.0,20.0,70,0.00,,,0.03,VWS V14.01,2013-08-27 14:02:00,
2013-08-27 10:03:00,78.3,67.7,29.82,NNW,338,3.0,20.0,70,0.00,,,0.03,VWS V14.01,2013-08-27 14:03:00,
2013-08-27 10:07:00,78.6,68.0,29.83,NNW,333,3.0,16.0,70,0.00,,,0.03,VWS V14.01,2013-08-27 14:07:00,
2013-08-27 10:08:00,78.6,68.0,29.83,NNW,329,6.0,16.0,70,0.00,,,0.03,VWS V14.01,2013-08-27 14:08:00,
2013-08-27 10:10:00,79.2,68.6,29.83,North,350,1.0,16.0,70,0.00,,,0.03,VWS V14.01,2013-08-27 14:10:00,
2013-08-27 10:12:00,79.8,68.7,29.83,NNW,329,2.0,16.0,69,0.00,,,0.03,VWS V14.01,2013-08-27 14:12:00,
2013-08-27 10:16:00,80.5,68.5,29.83,ENE,65,5.0,16.0,67,0.00,,,0.03,VWS V14.01,2013-08-27 14:16:00,
2013-08-27 10:17:00,80.7,68.3,29.83,NW,318,12.0,16.0,66,0.00,,,0.03,VWS V14.01,2013-08-27 14:17:00,
2013-08-27 10:18:00,80.7,67.8,29.83,NNW,327,8.0,16.0,65,0.00,,,0.03,VWS V14.01,2013-08-27 14:18:00,
2013-08-27 10:23:00,80.5,68.5,29.83,WNW,289,10.0,16.0,67,0.00,,,0.03,VWS V14.01,2013-08-27 14:23:00,
2013-08-27 10:24:00,80.3,67.9,29.83,NNW,346,7.0,16.0,66,0.00,,,0.03,VWS V14.01,2013-08-27 14:24:00,
2013-08-27 10:27:00,80.1,67.7,29.83,North,360,6.0,16.0,66,0.00,,,0.03,VWS V14.01,2013-08-27 14:27:00,
2013-08-27 10:28:00,80.1,68.2,29.83,NNW,338,11.0,16.0,67,0.00,,,0.03,VWS V14.01,2013-08-27 14:28:00,
2013-08-27 10:32:00,80.1,68.6,29.83,NNW,331,5.0,16.0,68,0.00,,,0.03,VWS V14.01,2013-08-27 14:32:00,
2013-08-27 10:33:00,80.1,67.7,29.83,NW,317,3.0,16.0,66,0.00,,,0.03,VWS V14.01,2013-08-27 14:33:00,
2013-08-27 10:34:00,80.3,67.5,29.83,NW,312,6.0,16.0,65,0.00,,,0.03,VWS V14.01,2013-08-27 14:34:00,
2013-08-27 10:35:00,80.3,68.3,29.83,WNW,302,9.0,16.0,67,0.00,,,0.03,VWS V14.01,2013-08-27 14:35:00,
2013-08-27 10:39:00,80.3,67.9,29.83,NW,310,10.0,17.0,66,0.00,,,0.03,VWS V14.01,2013-08-27 14:39:00,
2013-08-27 10:40:00,80.1,67.7,29.83,NW,313,6.0,17.0,66,0.00,,,0.03,VWS V14.01,2013-08-27 14:40:00,
2013-08-27 10:41:00,80.1,67.7,29.83,North,351,14.0,17.0,66,0.00,,,0.03,VWS V14.01,2013-08-27 14:41:00,
2013-08-27 10:43:00,79.9,68.0,29.83,NW,317,7.0,17.0,67,0.00,,,0.03,VWS V14.01,2013-08-27 14:43:00,
2013-08-27 10:46:00,80.1,67.7,29.83,NW,304,5.0,17.0,66,0.00,,,0.03,VWS V14.01,2013-08-27 14:46:00,
2013-08-27 10:48:00,80.1,67.7,29.83,NNW,330,7.0,17.0,66,0.00,,,0.03,VWS V14.01,2013-08-27 14:48:00,
2013-08-27 10:50:00,79.9,67.5,29.83,NNE,27,6.0,17.0,66,0.00,,,0.03,VWS V14.01,2013-08-27 14:50:00,
2013-08-27 10:52:00,79.9,68.0,29.83,NNW,336,3.0,17.0,67,0.00,,,0.03,VWS V14.01,2013-08-27 14:52:00,
2013-08-27 10:53:00,79.8,67.9,29.83,NNW,336,6.0,17.0,67,0.00,,,0.03,VWS V14.01,2013-08-27 14:53:00,
2013-08-27 10:54:00,79.9,68.4,29.83,NW,316,12.0,17.0,68,0.00,,,0.03,VWS V14.01,2013-08-27 14:54:00,
2013-08-27 10:56:00,80.3,68.3,29.83,NNW,348,4.0,17.0,67,0.00,,,0.03,VWS V14.01,2013-08-27 14:56:00,
2013-08-27 10:57:00,80.7,69.2,29.83,North,355,11.0,17.0,68,0.00,,,0.03,VWS V14.01,2013-08-27 14:57:00,
2013-08-27 10:59:00,81.1,68.7,29.83,NW,311,5.0,17.0,66,0.00,,,0.03,VWS V14.01,2013-08-27 14:59:00,
2013-08-27 11:01:00,81.4,68.1,29.83,NNE,14,7.0,17.0,64,0.00,,,0.03,VWS V14.01,2013-08-27 15:01:00,
2013-08-27 11:03:00,81.4,67.6,29.83,North,5,8.0,17.0,63,0.00,,,0.03,VWS V14.01,2013-08-27 15:03:00,
2013-08-27 11:04:00,81.4,68.1,29.83,NNW,336,9.0,17.0,64,0.00,,,0.03,VWS V14.01,2013-08-27 15:04:00,
2013-08-27 11:06:00,81.6,67.8,29.83,North,5,2.0,10.0,63,0.00,,,0.03,VWS V14.01,2013-08-27 15:06:00,
2013-08-27 11:09:00,81.6,67.3,29.83,NW,314,11.0,16.0,62,0.00,,,0.03,VWS V14.01,2013-08-27 15:09:00,
2013-08-27 11:10:00,81.4,67.6,29.83,NNW,343,10.0,16.0,63,0.00,,,0.03,VWS V14.01,2013-08-27 15:10:00,
2013-08-27 11:12:00,81.2,67.4,29.83,NW,325,9.0,16.0,63,0.00,,,0.03,VWS V14.01,2013-08-27 15:12:00,
2013-08-27 11:16:00,81.1,67.3,29.83,NNW,348,8.0,16.0,63,0.00,,,0.03,VWS V14.01,2013-08-27 15:16:00,
2013-08-27 11:17:00,81.1,67.3,29.83,North,349,12.0,16.0,63,0.00,,,0.03,VWS V14.01,2013-08-27 15:17:00,
2013-08-27 11:18:00,80.9,67.1,29.83,NNW,336,9.0,16.0,63,0.00,,,0.03,VWS V14.01,2013-08-27 15:18:00,
2013-08-27 11:19:00,80.9,67.6,29.83,North,350,8.0,16.0,64,0.00,,,0.03,VWS V14.01,2013-08-27 15:19:00,
2013-08-27 11:23:00,81.1,67.8,29.84,NNW,348,8.0,16.0,64,0.00,,,0.03,VWS V14.01,2013-08-27 15:23:00,
2013-08-27 11:24:00,81.1,67.8,29.84,North,5,6.0,16.0,64,0.00,,,0.03,VWS V14.01,2013-08-27 15:24:00,
2013-08-27 11:26:00,81.1,67.3,29.84,NNE,31,5.0,16.0,63,0.00,,,0.03,VWS V14.01,2013-08-27 15:26:00,
2013-08-27 11:27:00,81.1,67.8,29.84,NW,317,10.0,16.0,64,0.00,,,0.03,VWS V14.01,2013-08-27 15:27:00,
2013-08-27 11:29:00,80.9,67.1,29.84,NNE,23,8.0,19.0,63,0.00,,,0.03,VWS V14.01,2013-08-27 15:29:00,
2013-08-27 11:30:00,80.7,67.4,29.84,NNW,346,10.0,19.0,64,0.00,,,0.03,VWS V14.01,2013-08-27 15:30:00,
2013-08-27 11:32:00,80.5,67.2,29.84,NNW,341,11.0,19.0,64,0.00,,,0.03,VWS V14.01,2013-08-27 15:32:00,
2013-08-27 11:33:00,80.3,67.0,29.84,NW,323,8.0,19.0,64,0.00,,,0.03,VWS V14.01,2013-08-27 15:33:00,
2013-08-27 11:35:00,80.3,67.5,29.84,NNW,342,7.0,19.0,65,0.00,,,0.03,VWS V14.01,2013-08-27 15:35:00,
2013-08-27 11:38:00,80.5,67.2,29.84,NNW,327,4.0,14.0,64,0.00,,,0.03,VWS V14.01,2013-08-27 15:38:00,
2013-08-27 11:39:00,80.7,67.4,29.84,NNE,28,10.0,14.0,64,0.00,,,0.03,VWS V14.01,2013-08-27 15:39:00,
2013-08-27 11:44:00,81.8,68.0,29.84,NNW,346,7.0,14.0,63,0.00,,,0.03,VWS V14.01,2013-08-27 15:44:00,
2013-08-27 11:45:00,82.0,68.2,29.84,North,360,4.0,14.0,63,0.00,,,0.03,VWS V14.01,2013-08-27 15:45:00,
2013-08-27 11:46:00,82.0,68.2,29.84,NW,321,10.0,14.0,63,0.00,,,0.03,VWS V14.01,2013-08-27 15:46:00,
2013-08-27 11:48:00,82.0,67.2,29.84,North,5,9.0,17.0,61,0.00,,,0.03,VWS V14.01,2013-08-27 15:48:00,
2013-08-27 11:51:00,82.0,67.2,29.84,North,360,8.0,17.0,61,0.00,,,0.03,VWS V14.01,2013-08-27 15:51:00,
2013-08-27 11:52:00,82.0,67.2,29.84,NW,321,7.0,17.0,61,0.00,,,0.03,VWS V14.01,2013-08-27 15:52:00,
2013-08-27 11:55:00,82.0,67.2,29.84,NW,326,12.0,17.0,61,0.00,,,0.03,VWS V14.01,2013-08-27 15:55:00,
2013-08-27 11:56:00,82.0,67.2,29.84,NW,314,6.0,17.0,61,0.00,,,0.03,VWS V14.01,2013-08-27 15:56:00,
2013-08-27 12:00:00,82.8,68.0,29.84,North,355,9.0,17.0,61,0.00,,,0.03,VWS V14.01,2013-08-27 16:00:00,
2013-08-27 12:01:00,83.0,67.7,29.84,NNE,28,6.0,17.0,60,0.00,,,0.03,VWS V14.01,2013-08-27 16:01:00,
2013-08-27 12:03:00,83.4,68.1,29.84,NNE,20,5.0,17.0,60,0.00,,,0.03,VWS V14.01,2013-08-27 16:03:00,
2013-08-27 12:05:00,83.4,67.6,29.84,NNE,26,9.0,17.0,59,0.00,,,0.03,VWS V14.01,2013-08-27 16:05:00,
2013-08-27 12:06:00,83.6,68.3,29.84,NNE,18,4.0,9.0,60,0.00,,,0.03,VWS V14.01,2013-08-27 16:06:00,
2013-08-27 12:07:00,83.6,67.8,29.84,NNE,26,11.0,14.0,59,0.00,,,0.03,VWS V14.01,2013-08-27 16:07:00,
2013-08-27 12:09:00,83.4,67.6,29.84,NNW,338,10.0,14.0,59,0.00,,,0.03,VWS V14.01,2013-08-27 16:09:00,
2013-08-27 12:12:00,83.2,68.4,29.84,NE,51,8.0,16.0,61,0.00,,,0.03,VWS V14.01,2013-08-27 16:12:00,
2013-08-27 12:14:00,83.2,69.3,29.84,NE,53,3.0,16.0,63,0.00,,,0.03,VWS V14.01,2013-08-27 16:14:00,
2013-08-27 12:16:00,83.8,69.4,29.84,NW,312,5.0,16.0,62,0.00,,,0.03,VWS V14.01,2013-08-27 16:16:00,
2013-08-27 12:17:00,84.0,68.6,29.84,North,11,7.0,16.0,60,0.00,,,0.03,VWS V14.01,2013-08-27 16:17:00,
2013-08-27 12:20:00,84.1,67.2,29.84,NNE,16,11.0,16.0,57,0.00,,,0.03,VWS V14.01,2013-08-27 16:20:00,
2013-08-27 12:21:00,84.1,68.7,29.84,NNW,334,7.0,16.0,60,0.00,,,0.03,VWS V14.01,2013-08-27 16:21:00,
2013-08-27 12:22:00,84.1,67.7,29.84,North,355,8.0,16.0,58,0.00,,,0.03,VWS V14.01,2013-08-27 16:22:00,
2013-08-27 12:25:00,84.3,68.4,29.84,NNE,13,5.0,16.0,59,0.00,,,0.03,VWS V14.01,2013-08-27 16:25:00,
2013-08-27 12:27:00,84.3,67.4,29.84,NE,42,7.0,16.0,57,0.00,,,0.03,VWS V14.01,2013-08-27 16:27:00,
2013-08-27 12:28:00,84.3,67.9,29.84,NNW,335,5.0,16.0,58,0.00,,,0.03,VWS V14.01,2013-08-27 16:28:00,
2013-08-27 12:30:00,84.1,68.2,29.84,NW,322,12.0,16.0,59,0.00,,,0.03,VWS V14.01,2013-08-27 16:30:00,
2013-08-27 12:33:00,84.1,68.2,29.84,NNW,336,8.0,17.0,59,0.00,,,0.03,VWS V14.01,2013-08-27 16:33:00,
2013-08-27 12:34:00,84.1,67.7,29.84,NNW,348,10.0,17.0,58,0.00,,,0.03,VWS V14.01,2013-08-27 16:34:00,
2013-08-27 12:35:00,84.1,67.7,29.84,NNW,327,7.0,18.0,58,0.00,,,0.03,VWS V14.01,2013-08-27 16:35:00,
2013-08-27 12:39:00,84.0,67.7,29.84,NW,325,12.0,17.0,58,0.00,,,0.03,VWS V14.01,2013-08-27 16:39:00,
2013-08-27 12:40:00,84.0,67.7,29.84,North,355,0.0,17.0,58,0.00,,,0.03,VWS V14.01,2013-08-27 16:40:00,
2013-08-27 12:41:00,84.0,67.7,29.84,NW,305,11.0,17.0,58,0.00,,,0.03,VWS V14.01,2013-08-27 16:41:00,
2013-08-27 12:43:00,83.8,67.5,29.84,NNW,328,8.0,17.0,58,0.00,,,0.03,VWS V14.01,2013-08-27 16:43:00,
2013-08-27 12:44:00,83.6,67.3,29.84,NNE,13,6.0,17.0,58,0.00,,,0.03,VWS V14.01,2013-08-27 16:44:00,
2013-08-27 12:46:00,83.8,68.9,29.84,NW,315,8.0,17.0,61,0.00,,,0.03,VWS V14.01,2013-08-27 16:46:00,
2013-08-27 12:47:00,83.8,68.4,29.84,NW,321,6.0,17.0,60,0.00,,,0.03,VWS V14.01,2013-08-27 16:47:00,
2013-08-27 12:48:00,83.8,68.0,29.84,NNE,26,11.0,17.0,59,0.00,,,0.03,VWS V14.01,2013-08-27 16:48:00,
2013-08-27 12:51:00,83.6,67.8,29.84,North,355,7.0,17.0,59,0.00,,,0.03,VWS V14.01,2013-08-27 16:51:00,
2013-08-27 12:52:00,83.4,67.6,29.84,NNE,13,4.0,17.0,59,0.00,,,0.03,VWS V14.01,2013-08-27 16:52:00,
2013-08-27 12:54:00,83.6,68.3,29.84,NNE,19,6.0,17.0,60,0.00,,,0.03,VWS V14.01,2013-08-27 16:54:00,
2013-08-27 12:57:00,83.6,68.3,29.84,NW,313,8.0,17.0,60,0.00,,,0.03,VWS V14.01,2013-08-27 16:57:00,
2013-08-27 12:58:00,83.6,67.3,29.84,NW,324,5.0,17.0,58,0.00,,,0.03,VWS V14.01,2013-08-27 16:58:00,
2013-08-27 13:00:00,83.8,68.0,29.84,North,349,15.0,17.0,59,0.00,,,0.03,VWS V14.01,2013-08-27 17:00:00,
2013-08-27 13:01:00,83.8,67.5,29.84,NW,304,4.0,17.0,58,0.00,,,0.03,VWS V14.01,2013-08-27 17:01:00,
2013-08-27 13:04:00,83.8,68.9,29.84,NNE,17,8.0,17.0,61,0.00,,,0.03,VWS V14.01,2013-08-27 17:04:00,
2013-08-27 13:05:00,83.8,68.0,29.84,North,355,6.0,17.0,59,0.00,,,0.03,VWS V14.01,2013-08-27 17:05:00,
2013-08-27 13:07:00,84.0,67.7,29.84,NNE,18,12.0,14.0,58,0.00,,,0.03,VWS V14.01,2013-08-27 17:07:00,
2013-08-27 13:10:00,84.3,67.4,29.84,North,5,12.0,14.0,57,0.00,,,0.03,VWS V14.01,2013-08-27 17:10:00,
2013-08-27 13:11:00,84.3,67.4,29.84,NW,323,6.0,14.0,57,0.00,,,0.03,VWS V14.01,2013-08-27 17:11:00,
2013-08-27 13:14:00,85.1,68.7,29.84,NNE,29,5.0,14.0,58,0.00,,,0.03,VWS V14.01,2013-08-27 17:14:00,
2013-08-27 13:15:00,85.3,69.4,29.84,NNE,14,12.0,16.0,59,0.00,,,0.03,VWS V14.01,2013-08-27 17:15:00,
2013-08-27 13:17:00,85.5,68.0,29.84,NE,51,5.0,16.0,56,0.00,,,0.03,VWS V14.01,2013-08-27 17:17:00,
2013-08-27 13:21:00,85.1,68.7,29.84,NNE,32,5.0,16.0,58,0.00,,,0.03,VWS V14.01,2013-08-27 17:21:00,
2013-08-27 13:22:00,85.1,68.2,29.84,North,360,5.0,16.0,57,0.00,,,0.03,VWS V14.01,2013-08-27 17:22:00,
2013-08-27 13:24:00,85.1,68.2,29.84,North,350,8.0,16.0,57,0.00,,,0.03,VWS V14.01,2013-08-27 17:24:00,
2013-08-27 13:27:00,84.9,68.0,29.84,NE,37,5.0,16.0,57,0.00,,,0.03,VWS V14.01,2013-08-27 17:27:00,
2013-08-27 13:28:00,84.9,68.5,29.84,NE,41,8.0,16.0,58,0.00,,,0.03,VWS V14.01,2013-08-27 17:28:00,
2013-08-27 13:33:00,84.7,68.3,29.84,NNE,18,7.0,16.0,58,0.00,,,0.03,VWS V14.01,2013-08-27 17:33:00,
2013-08-27 13:35:00,84.7,67.8,29.84,North,11,7.0,16.0,57,0.00,,,0.03,VWS V14.01,2013-08-27 17:35:00,
2013-08-27 13:37:00,84.7,68.3,29.84,North,355,2.0,14.0,58,0.00,,,0.03,VWS V14.01,2013-08-27 17:37:00,
2013-08-27 13:39:00,85.3,68.9,29.84,North,355,5.0,14.0,58,0.00,,,0.03,VWS V14.01,2013-08-27 17:39:00,
2013-08-27 13:40:00,85.3,67.8,29.84,North,360,6.0,14.0,56,0.00,,,0.03,VWS V14.01,2013-08-27 17:40:00,
2013-08-27 13:42:00,85.5,69.1,29.84,NNW,342,11.0,14.0,58,0.00,,,0.03,VWS V14.01,2013-08-27 17:42:00,
2013-08-27 13:44:00,85.7,68.7,29.84,North,355,6.0,14.0,57,0.00,,,0.03,VWS V14.01,2013-08-27 17:44:00,
2013-08-27 13:45:00,85.9,68.4,29.84,NNW,340,3.0,14.0,56,0.00,,,0.03,VWS V14.01,2013-08-27 17:45:00,
2013-08-27 13:46:00,86.1,69.1,29.84,NNW,344,3.0,14.0,57,0.00,,,0.03,VWS V14.01,2013-08-27 17:46:00,
2013-08-27 13:47:00,86.1,69.1,29.84,NNW,346,8.0,14.0,57,0.00,,,0.03,VWS V14.01,2013-08-27 17:47:00,
2013-08-27 13:48:00,86.1,68.1,29.84,NNE,13,5.0,15.0,55,0.00,,,0.03,VWS V14.01,2013-08-27 17:48:00,
2013-08-27 13:50:00,86.1,68.6,29.84,NNW,333,5.0,18.0,56,0.00,,,0.03,VWS V14.01,2013-08-27 17:50:00,
2013-08-27 13:52:00,86.1,69.1,29.84,NNW,335,5.0,18.0,57,0.00,,,0.03,VWS V14.01,2013-08-27 17:52:00,
2013-08-27 13:53:00,86.1,68.1,29.84,NW,325,16.0,18.0,55,0.00,,,0.03,VWS V14.01,2013-08-27 17:53:00,
2013-08-27 13:54:00,85.9,67.9,29.84,NNW,347,6.0,18.0,55,0.00,,,0.03,VWS V14.01,2013-08-27 17:54:00,
2013-08-27 13:55:00,85.9,67.9,29.84,WNW,296,6.0,18.0,55,0.00,,,0.03,VWS V14.01,2013-08-27 17:55:00,
2013-08-27 13:58:00,85.7,68.2,29.84,NNW,341,7.0,18.0,56,0.00,,,0.03,VWS V14.01,2013-08-27 17:58:00,
2013-08-27 13:59:00,85.7,67.7,29.84,NNW,341,6.0,18.0,55,0.00,,,0.03,VWS V14.01,2013-08-27 17:59:00,
2013-08-27 14:01:00,85.5,67.5,29.84,NW,321,5.0,18.0,55,0.00,,,0.03,VWS V14.01,2013-08-27 18:01:00,
2013-08-27 14:04:00,85.5,67.5,29.83,North,350,12.0,18.0,55,0.00,,,0.03,VWS V14.01,2013-08-27 18:04:00,
2013-08-27 14:05:00,85.5,67.5,29.83,North,9,11.0,11.0,55,0.00,,,0.03,VWS V14.01,2013-08-27 18:05:00,
2013-08-27 14:06:00,85.3,66.8,29.83,WNW,301,8.0,13.0,54,0.00,,,0.03,VWS V14.01,2013-08-27 18:06:00,
2013-08-27 14:07:00,85.3,67.3,29.83,NNW,333,7.0,13.0,55,0.00,,,0.03,VWS V14.01,2013-08-27 18:07:00,
2013-08-27 14:10:00,85.5,67.5,29.83,NW,318,5.0,13.0,55,0.00,,,0.03,VWS V14.01,2013-08-27 18:10:00,
2013-08-27 14:12:00,85.7,67.7,29.83,NW,320,9.0,13.0,55,0.00,,,0.03,VWS V14.01,2013-08-27 18:12:00,
2013-08-27 14:14:00,85.9,66.8,29.83,NW,313,12.0,14.0,53,0.00,,,0.03,VWS V14.01,2013-08-27 18:14:00,
2013-08-27 14:19:00,86.3,67.2,29.83,NNW,336,8.0,14.0,53,0.00,,,0.03,VWS V14.01,2013-08-27 18:19:00,
2013-08-27 14:22:00,86.7,68.1,29.83,NW,305,11.0,14.0,54,0.00,,,0.03,VWS V14.01,2013-08-27 18:22:00,
2013-08-27 14:23:00,86.7,68.1,29.83,NNE,20,7.0,14.0,54,0.00,,,0.03,VWS V14.01,2013-08-27 18:23:00,
2013-08-27 14:24:00,86.7,67.0,29.83,North,355,3.0,14.0,52,0.00,,,0.03,VWS V14.01,2013-08-27 18:24:00,
2013-08-27 14:25:00,86.7,67.5,29.83,NNW,340,7.0,14.0,53,0.00,,,0.03,VWS V14.01,2013-08-27 18:25:00,
2013-08-27 14:28:00,87.0,68.4,29.83,NNE,25,3.0,14.0,54,0.00,,,0.03,VWS V14.01,2013-08-27 18:28:00,
2013-08-27 14:30:00,87.2,69.1,29.83,NE,55,8.0,14.0,55,0.00,,,0.03,VWS V14.01,2013-08-27 18:30:00,
2013-08-27 14:31:00,87.2,68.0,29.83,NNE,32,5.0,14.0,53,0.00,,,0.03,VWS V14.01,2013-08-27 18:31:00,
2013-08-27 14:32:00,87.4,67.6,29.83,North,360,4.0,14.0,52,0.00,,,0.03,VWS V14.01,2013-08-27 18:32:00,
2013-08-27 14:33:00,87.6,68.4,29.83,North,360,9.0,14.0,53,0.00,,,0.03,VWS V14.01,2013-08-27 18:33:00,
2013-08-27 14:35:00,87.6,67.2,29.83,NNW,330,10.0,14.0,51,0.00,,,0.03,VWS V14.01,2013-08-27 18:35:00,
2013-08-27 14:38:00,87.2,67.4,29.83,NNW,329,8.0,14.0,52,0.00,,,0.03,VWS V14.01,2013-08-27 18:38:00,
2013-08-27 14:39:00,87.2,68.0,29.83,North,350,8.0,14.0,53,0.00,,,0.03,VWS V14.01,2013-08-27 18:39:00,
2013-08-27 14:40:00,87.0,67.3,29.83,NE,35,7.0,14.0,52,0.00,,,0.03,VWS V14.01,2013-08-27 18:40:00,
2013-08-27 14:41:00,87.0,67.8,29.83,NNW,347,9.0,14.0,53,0.00,,,0.03,VWS V14.01,2013-08-27 18:41:00,
2013-08-27 14:44:00,87.0,67.8,29.83,North,5,5.0,14.0,53,0.00,,,0.03,VWS V14.01,2013-08-27 18:44:00,
2013-08-27 14:45:00,87.0,67.3,29.83,NNW,344,12.0,14.0,52,0.00,,,0.03,VWS V14.01,2013-08-27 18:45:00,
2013-08-27 14:46:00,87.0,67.3,29.83,North,360,9.0,15.0,52,0.00,,,0.03,VWS V14.01,2013-08-27 18:46:00,
2013-08-27 14:50:00,87.2,68.0,29.83,North,5,9.0,15.0,53,0.00,,,0.03,VWS V14.01,2013-08-27 18:50:00,
2013-08-27 14:51:00,87.2,68.0,29.83,NNW,348,5.0,15.0,53,0.00,,,0.03,VWS V14.01,2013-08-27 18:51:00,
2013-08-27 14:52:00,87.4,68.2,29.83,NNW,340,5.0,15.0,53,0.00,,,0.03,VWS V14.01,2013-08-27 18:52:00,
2013-08-27 14:53:00,87.4,67.6,29.83,North,355,11.0,15.0,52,0.00,,,0.03,VWS V14.01,2013-08-27 18:53:00,
2013-08-27 14:55:00,87.4,67.6,29.83,North,5,10.0,15.0,52,0.00,,,0.03,VWS V14.01,2013-08-27 18:55:00,
2013-08-27 14:56:00,87.6,67.2,29.83,NNE,12,7.0,15.0,51,0.00,,,0.03,VWS V14.01,2013-08-27 18:56:00,
2013-08-27 14:59:00,87.6,67.8,29.83,NNE,14,9.0,15.0,52,0.00,,,0.03,VWS V14.01,2013-08-27 18:59:00,
2013-08-27 15:00:00,87.6,67.8,29.83,NNE,24,5.0,15.0,52,0.00,,,0.03,VWS V14.01,2013-08-27 19:00:00,
2013-08-27 15:01:00,87.6,67.2,29.83,NNE,32,6.0,15.0,51,0.00,,,0.03,VWS V14.01,2013-08-27 19:01:00,
2013-08-27 15:02:00,87.8,67.4,29.83,NNE,19,6.0,15.0,51,0.00,,,0.03,VWS V14.01,2013-08-27 19:02:00,
2013-08-27 15:05:00,87.8,66.9,29.82,NNE,26,3.0,15.0,50,0.00,,,0.03,VWS V14.01,2013-08-27 19:05:00,
2013-08-27 15:06:00,88.0,67.6,29.82,NNE,29,2.0,7.0,51,0.00,,,0.03,VWS V14.01,2013-08-27 19:06:00,
2013-08-27 15:07:00,88.0,67.6,29.82,North,355,8.0,10.0,51,0.00,,,0.03,VWS V14.01,2013-08-27 19:07:00,
2013-08-27 15:09:00,88.0,67.6,29.82,North,355,6.0,11.0,51,0.00,,,0.03,VWS V14.01,2013-08-27 19:09:00,
2013-08-27 15:11:00,88.2,66.7,29.82,NW,326,4.0,11.0,49,0.00,,,0.03,VWS V14.01,2013-08-27 19:11:00,
2013-08-27 15:12:00,88.2,67.8,29.82,North,350,9.0,11.0,51,0.00,,,0.03,VWS V14.01,2013-08-27 19:12:00,
2013-08-27 15:13:00,88.2,67.8,29.82,NE,35,6.0,11.0,51,0.00,,,0.03,VWS V14.01,2013-08-27 19:13:00,
2013-08-27 15:14:00,88.2,67.8,29.82,North,355,8.0,11.0,51,0.00,,,0.03,VWS V14.01,2013-08-27 19:14:00,
2013-08-27 15:19:00,88.2,67.8,29.82,North,355,12.0,12.0,51,0.00,,,0.03,VWS V14.01,2013-08-27 19:19:00,
2013-08-27 15:20:00,88.2,67.2,29.82,NNE,23,10.0,12.0,50,0.00,,,0.03,VWS V14.01,2013-08-27 19:20:00,
2013-08-27 15:22:00,88.2,67.8,29.82,NNE,32,8.0,14.0,51,0.00,,,0.03,VWS V14.01,2013-08-27 19:22:00,
2013-08-27 15:23:00,88.2,67.2,29.82,NE,40,6.0,14.0,50,0.00,,,0.03,VWS V14.01,2013-08-27 19:23:00,
2013-08-27 15:24:00,88.2,67.8,29.82,NE,37,0.0,14.0,51,0.00,,,0.03,VWS V14.01,2013-08-27 19:24:00,
2013-08-27 15:26:00,88.2,67.8,29.82,North,360,7.0,14.0,51,0.00,,,0.03,VWS V14.01,2013-08-27 19:26:00,
2013-08-27 15:28:00,88.2,66.7,29.82,North,5,4.0,14.0,49,0.00,,,0.03,VWS V14.01,2013-08-27 19:28:00,
2013-08-27 15:31:00,88.2,67.2,29.82,North,5,4.0,14.0,50,0.00,,,0.03,VWS V14.01,2013-08-27 19:31:00,
2013-08-27 15:32:00,88.4,68.0,29.82,NNE,24,6.0,14.0,51,0.00,,,0.03,VWS V14.01,2013-08-27 19:32:00,
2013-08-27 15:34:00,88.4,66.8,29.81,NE,50,3.0,14.0,49,0.00,,,0.03,VWS V14.01,2013-08-27 19:34:00,
2013-08-27 15:36:00,88.4,66.8,29.81,ENE,73,0.0,6.0,49,0.00,,,0.03,VWS V14.01,2013-08-27 19:36:00,
2013-08-27 15:37:00,88.4,67.4,29.81,NE,34,0.0,9.0,50,0.00,,,0.03,VWS V14.01,2013-08-27 19:37:00,
2013-08-27 15:40:00,88.4,68.0,29.81,NE,56,4.0,9.0,51,0.00,,,0.03,VWS V14.01,2013-08-27 19:40:00,
2013-08-27 15:41:00,88.4,68.0,29.81,NNE,12,4.0,9.0,51,0.00,,,0.03,VWS V14.01,2013-08-27 19:41:00,
2013-08-27 15:42:00,88.4,67.4,29.81,North,9,5.0,11.0,50,0.00,,,0.03,VWS V14.01,2013-08-27 19:42:00,
2013-08-27 15:44:00,88.4,66.8,29.81,NNE,24,1.0,11.0,49,0.00,,,0.03,VWS V14.01,2013-08-27 19:44:00,
2013-08-27 15:46:00,88.6,67.0,29.81,North,355,2.0,11.0,49,0.00,,,0.03,VWS V14.01,2013-08-27 19:46:00,
2013-08-27 15:48:00,88.6,67.6,29.81,NE,42,0.0,11.0,50,0.00,,,0.03,VWS V14.01,2013-08-27 19:48:00,
2013-08-27 15:49:00,88.8,67.8,29.82,NE,42,3.0,11.0,50,0.00,,,0.03,VWS V14.01,2013-08-27 19:49:00,
2013-08-27 15:52:00,89.0,69.1,29.82,NE,55,0.0,11.0,52,0.00,,,0.03,VWS V14.01,2013-08-27 19:52:00,
2013-08-27 15:53:00,89.3,68.8,29.82,NNE,17,3.0,11.0,51,0.00,,,0.03,VWS V14.01,2013-08-27 19:53:00,
2013-08-27 15:54:00,89.3,67.7,29.82,NNE,17,0.0,11.0,49,0.00,,,0.03,VWS V14.01,2013-08-27 19:54:00,
2013-08-27 15:57:00,89.3,66.4,29.82,NNW,348,8.0,11.0,47,0.00,,,0.03,VWS V14.01,2013-08-27 19:57:00,
2013-08-27 15:58:00,89.3,66.4,29.82,NW,304,9.0,13.0,47,0.00,,,0.03,VWS V14.01,2013-08-27 19:58:00,
2013-08-27 15:59:00,89.3,66.4,29.82,North,349,5.0,13.0,47,0.00,,,0.03,VWS V14.01,2013-08-27 19:59:00,
2013-08-27 16:00:00,89.3,67.1,29.82,NNE,16,4.0,13.0,48,0.00,,,0.03,VWS V14.01,2013-08-27 20:00:00,
2013-08-27 16:03:00,89.5,66.0,29.82,NNW,329,8.0,13.0,46,0.00,,,0.03,VWS V14.01,2013-08-27 20:03:00,
2013-08-27 16:04:00,89.5,66.0,29.82,NW,318,9.0,15.0,46,0.00,,,0.03,VWS V14.01,2013-08-27 20:04:00,
2013-08-27 16:05:00,89.5,66.6,29.82,NNW,328,9.0,9.0,47,0.00,,,0.03,VWS V14.01,2013-08-27 20:05:00,
2013-08-27 16:06:00,89.5,66.0,29.82,NNW,344,10.0,13.0,46,0.00,,,0.03,VWS V14.01,2013-08-27 20:06:00,
2013-08-27 16:08:00,89.3,64.6,29.82,North,355,13.0,17.0,44,0.00,,,0.03,VWS V14.01,2013-08-27 20:08:00,
2013-08-27 16:11:00,89.0,64.9,29.82,NNW,337,11.0,17.0,45,0.00,,,0.03,VWS V14.01,2013-08-27 20:11:00,
2013-08-27 16:13:00,88.8,65.4,29.82,North,349,5.0,17.0,46,0.00,,,0.03,VWS V14.01,2013-08-27 20:13:00,
2013-08-27 16:15:00,88.8,65.4,29.82,NNE,22,10.0,17.0,46,0.00,,,0.03,VWS V14.01,2013-08-27 20:15:00,
2013-08-27 16:17:00,88.6,64.6,29.82,North,9,10.0,17.0,45,0.00,,,0.03,VWS V14.01,2013-08-27 20:17:00,
2013-08-27 16:18:00,88.6,64.6,29.82,NNE,26,8.0,17.0,45,0.00,,,0.03,VWS V14.01,2013-08-27 20:18:00,
2013-08-27 16:21:00,88.6,65.8,29.81,North,5,7.0,17.0,47,0.00,,,0.03,VWS V14.01,2013-08-27 20:21:00,
2013-08-27 16:22:00,88.6,65.2,29.81,NNW,335,8.0,17.0,46,0.00,,,0.03,VWS V14.01,2013-08-27 20:22:00,
2013-08-27 16:23:00,88.4,65.0,29.81,NNW,331,6.0,17.0,46,0.00,,,0.03,VWS V14.01,2013-08-27 20:23:00,
2013-08-27 16:28:00,88.6,65.2,29.81,North,5,11.0,17.0,46,0.00,,,0.03,VWS V14.01,2013-08-27 20:28:00,
2013-08-27 16:29:00,88.4,65.0,29.81,North,5,8.0,17.0,46,0.00,,,0.03,VWS V14.01,2013-08-27 20:29:00,
2013-08-27 16:30:00,88.4,65.0,29.81,North,360,6.0,17.0,46,0.00,,,0.03,VWS V14.01,2013-08-27 20:30:00,
2013-08-27 16:33:00,88.6,65.2,29.81,NNW,329,9.0,17.0,46,0.00,,,0.03,VWS V14.01,2013-08-27 20:33:00,
2013-08-27 16:34:00,88.6,65.8,29.81,NNW,340,6.0,17.0,47,0.00,,,0.03,VWS V14.01,2013-08-27 20:34:00,
2013-08-27 16:35:00,88.6,65.2,29.81,North,11,2.0,17.0,46,0.00,,,0.03,VWS V14.01,2013-08-27 20:35:00,
2013-08-27 16:36:00,88.6,65.2,29.81,NNE,24,9.0,9.0,46,0.00,,,0.03,VWS V14.01,2013-08-27 20:36:00,
2013-08-27 16:38:00,88.6,65.2,29.81,North,5,6.0,11.0,46,0.00,,,0.03,VWS V14.01,2013-08-27 20:38:00,
2013-08-27 16:40:00,88.6,65.2,29.81,North,360,6.0,11.0,46,0.00,,,0.03,VWS V14.01,2013-08-27 20:40:00,
2013-08-27 16:41:00,88.6,65.2,29.81,NNW,329,8.0,11.0,46,0.00,,,0.03,VWS V14.01,2013-08-27 20:41:00,
2013-08-27 16:43:00,88.6,65.2,29.81,NNE,19,6.0,11.0,46,0.00,,,0.03,VWS V14.01,2013-08-27 20:43:00,
2013-08-27 16:46:00,88.4,65.0,29.81,NE,39,10.0,11.0,46,0.00,,,0.03,VWS V14.01,2013-08-27 20:46:00,
2013-08-27 16:47:00,88.4,65.0,29.81,NNW,348,3.0,11.0,46,0.00,,,0.03,VWS V14.01,2013-08-27 20:47:00,
2013-08-27 16:48:00,88.6,65.8,29.81,NE,34,8.0,11.0,47,0.00,,,0.03,VWS V14.01,2013-08-27 20:48:00,
2013-08-27 16:51:00,88.6,64.6,29.81,NNE,18,6.0,14.0,45,0.00,,,0.03,VWS V14.01,2013-08-27 20:51:00,
2013-08-27 16:53:00,88.6,65.2,29.81,NNE,12,4.0,14.0,46,0.00,,,0.03,VWS V14.01,2013-08-27 20:53:00,
2013-08-27 16:54:00,88.4,65.0,29.81,NNE,22,5.0,14.0,46,0.00,,,0.03,VWS V14.01,2013-08-27 20:54:00,
2013-08-27 16:57:00,88.4,65.0,29.81,NNW,333,7.0,14.0,46,0.00,,,0.03,VWS V14.01,2013-08-27 20:57:00,
2013-08-27 16:58:00,88.4,65.0,29.81,NNW,338,8.0,14.0,46,0.00,,,0.03,VWS V14.01,2013-08-27 20:58:00,
2013-08-27 17:00:00,88.4,63.7,29.81,North,351,7.0,14.0,44,0.00,,,0.03,VWS V14.01,2013-08-27 21:00:00,
2013-08-27 17:01:00,88.4,64.4,29.81,NNE,15,11.0,14.0,45,0.00,,,0.03,VWS V14.01,2013-08-27 21:01:00,
2013-08-27 17:03:00,88.4,65.0,29.81,NE,42,5.0,14.0,46,0.00,,,0.03,VWS V14.01,2013-08-27 21:03:00,
2013-08-27 17:05:00,88.2,64.8,29.82,NNE,20,4.0,14.0,46,0.00,,,0.03,VWS V14.01,2013-08-27 21:05:00,
2013-08-27 17:06:00,88.2,65.4,29.82,North,5,6.0,7.0,47,0.00,,,0.03,VWS V14.01,2013-08-27 21:06:00,
2013-08-27 17:08:00,88.0,65.3,29.82,NNE,16,3.0,7.0,47,0.00,,,0.03,VWS V14.01,2013-08-27 21:08:00,
2013-08-27 17:11:00,88.0,65.9,29.82,NE,39,3.0,10.0,48,0.00,,,0.03,VWS V14.01,2013-08-27 21:11:00,
2013-08-27 17:12:00,88.0,65.9,29.82,North,355,1.0,10.0,48,0.00,,,0.03,VWS V14.01,2013-08-27 21:12:00,
2013-08-27 17:14:00,88.2,64.8,29.82,NW,320,1.0,10.0,46,0.00,,,0.03,VWS V14.01,2013-08-27 21:14:00,
2013-08-27 17:15:00,88.2,65.4,29.82,North,355,0.0,10.0,47,0.00,,,0.03,VWS V14.01,2013-08-27 21:15:00,
2013-08-27 17:16:00,88.2,65.4,29.82,NNE,28,3.0,10.0,47,0.00,,,0.03,VWS V14.01,2013-08-27 21:16:00,
2013-08-27 17:18:00,88.2,65.4,29.82,ENE,61,3.0,10.0,47,0.00,,,0.03,VWS V14.01,2013-08-27 21:18:00,
2013-08-27 17:23:00,88.6,66.4,29.82,NNE,13,6.0,10.0,48,0.00,,,0.03,VWS V14.01,2013-08-27 21:23:00,
2013-08-27 17:24:00,88.6,65.8,29.82,NE,43,5.0,10.0,47,0.00,,,0.03,VWS V14.01,2013-08-27 21:24:00,
2013-08-27 17:29:00,88.6,65.2,29.82,NNW,330,7.0,10.0,46,0.00,,,0.03,VWS V14.01,2013-08-27 21:29:00,
2013-08-27 17:30:00,88.6,65.8,29.82,NNW,329,5.0,10.0,47,0.00,,,0.03,VWS V14.01,2013-08-27 21:30:00,
2013-08-27 17:32:00,88.4,65.6,29.82,NNW,346,5.0,11.0,47,0.00,,,0.03,VWS V14.01,2013-08-27 21:32:00,
2013-08-27 17:33:00,88.4,66.2,29.82,North,355,4.0,11.0,48,0.00,,,0.03,VWS V14.01,2013-08-27 21:33:00,
2013-08-27 17:34:00,88.4,65.6,29.82,NNW,338,5.0,11.0,47,0.00,,,0.03,VWS V14.01,2013-08-27 21:34:00,
2013-08-27 17:35:00,88.4,65.6,29.82,WNW,290,8.0,12.0,47,0.00,,,0.03,VWS V14.01,2013-08-27 21:35:00,
2013-08-27 17:40:00,88.2,66.1,29.82,NNE,12,5.0,10.0,48,0.00,,,0.03,VWS V14.01,2013-08-27 21:40:00,
2013-08-27 17:41:00,88.2,66.1,29.82,North,5,0.0,10.0,48,0.00,,,0.03,VWS V14.01,2013-08-27 21:41:00,
2013-08-27 17:42:00,88.2,65.4,29.82,North,355,6.0,10.0,47,0.00,,,0.03,VWS V14.01,2013-08-27 21:42:00,
2013-08-27 17:45:00,88.2,65.4,29.82,NNW,347,6.0,10.0,47,0.00,,,0.03,VWS V14.01,2013-08-27 21:45:00,
2013-08-27 17:47:00,88.2,66.1,29.82,North,5,0.0,10.0,48,0.00,,,0.03,VWS V14.01,2013-08-27 21:47:00,
2013-08-27 17:49:00,88.2,65.4,29.82,NNW,346,2.0,10.0,47,0.00,,,0.03,VWS V14.01,2013-08-27 21:49:00,
2013-08-27 17:50:00,88.2,66.1,29.82,NNW,346,6.0,10.0,48,0.00,,,0.03,VWS V14.01,2013-08-27 21:50:00,
2013-08-27 17:54:00,88.2,66.1,29.82,North,355,0.0,10.0,48,0.00,,,0.03,VWS V14.01,2013-08-27 21:54:00,
2013-08-27 17:56:00,88.2,66.1,29.82,North,5,0.0,10.0,48,0.00,,,0.03,VWS V14.01,2013-08-27 21:56:00,
2013-08-27 17:57:00,88.2,67.2,29.82,North,5,0.0,10.0,50,0.00,,,0.03,VWS V14.01,2013-08-27 21:57:00,
2013-08-27 17:58:00,88.2,68.4,29.82,North,5,0.0,10.0,52,0.00,,,0.03,VWS V14.01,2013-08-27 21:58:00,
2013-08-27 18:02:00,88.2,68.4,29.82,NNE,15,0.0,10.0,52,0.00,,,0.03,VWS V14.01,2013-08-27 22:02:00,
2013-08-27 18:04:00,88.0,69.3,29.82,NNE,15,0.0,10.0,54,0.00,,,0.03,VWS V14.01,2013-08-27 22:04:00,
2013-08-27 18:07:00,87.8,69.1,29.82,NNE,20,0.0,0.0,54,0.00,,,0.03,VWS V14.01,2013-08-27 22:07:00,
2013-08-27 18:11:00,87.4,69.8,29.82,NE,45,0.0,2.0,56,0.00,,,0.03,VWS V14.01,2013-08-27 22:11:00,
2013-08-27 18:12:00,87.2,69.1,29.82,NE,45,0.0,2.0,55,0.00,,,0.03,VWS V14.01,2013-08-27 22:12:00,
2013-08-27 18:15:00,86.7,69.1,29.82,NE,46,0.0,2.0,56,0.00,,,0.03,VWS V14.01,2013-08-27 22:15:00,
2013-08-27 18:16:00,86.5,69.5,29.82,NE,46,0.0,2.0,57,0.00,,,0.03,VWS V14.01,2013-08-27 22:16:00,
2013-08-27 18:17:00,86.3,69.3,29.82,NE,46,0.0,2.0,57,0.00,,,0.03,VWS V14.01,2013-08-27 22:17:00,
2013-08-27 18:19:00,86.1,69.1,29.82,NE,46,0.0,2.0,57,0.00,,,0.03,VWS V14.01,2013-08-27 22:19:00,
2013-08-27 18:20:00,85.9,68.9,29.82,NE,46,0.0,2.0,57,0.00,,,0.03,VWS V14.01,2013-08-27 22:20:00,
2013-08-27 18:21:00,85.7,69.2,29.82,NE,46,0.0,2.0,58,0.00,,,0.03,VWS V14.01,2013-08-27 22:21:00,
2013-08-27 18:24:00,85.3,69.4,29.82,NE,48,0.0,2.0,59,0.00,,,0.03,VWS V14.01,2013-08-27 22:24:00,
2013-08-27 18:25:00,85.1,69.2,29.82,NE,48,0.0,2.0,59,0.00,,,0.03,VWS V14.01,2013-08-27 22:25:00,
2013-08-27 18:28:00,84.7,68.8,29.82,NE,48,0.0,2.0,59,0.00,,,0.03,VWS V14.01,2013-08-27 22:28:00,
2013-08-27 18:29:00,84.5,68.6,29.82,NE,48,0.0,2.0,59,0.00,,,0.03,VWS V14.01,2013-08-27 22:29:00,
2013-08-27 18:33:00,84.0,69.1,29.82,NE,49,0.0,2.0,61,0.00,,,0.03,VWS V14.01,2013-08-27 22:33:00,
2013-08-27 18:34:00,84.0,69.1,29.82,NE,49,0.0,2.0,61,0.00,,,0.03,VWS V14.01,2013-08-27 22:34:00,
2013-08-27 18:39:00,83.2,68.8,29.82,NE,49,0.0,1.0,62,0.00,,,0.03,VWS V14.01,2013-08-27 22:39:00,
2013-08-27 18:40:00,83.2,69.3,29.82,NE,49,0.0,1.0,63,0.00,,,0.03,VWS V14.01,2013-08-27 22:40:00,
2013-08-27 18:42:00,83.0,69.1,29.82,NE,49,0.0,1.0,63,0.00,,,0.03,VWS V14.01,2013-08-27 22:42:00,
2013-08-27 18:44:00,82.6,68.7,29.82,NE,49,0.0,1.0,63,0.00,,,0.03,VWS V14.01,2013-08-27 22:44:00,
2013-08-27 18:49:00,82.2,68.8,29.82,NE,49,0.0,1.0,64,0.00,,,0.03,VWS V14.01,2013-08-27 22:49:00,
2013-08-27 18:50:00,82.2,68.8,29.82,NE,49,0.0,1.0,64,0.00,,,0.03,VWS V14.01,2013-08-27 22:50:00,
2013-08-27 18:51:00,82.0,68.6,29.82,NE,49,0.0,1.0,64,0.00,,,0.03,VWS V14.01,2013-08-27 22:51:00,
2013-08-27 18:53:00,81.8,68.4,29.82,NE,49,0.0,1.0,64,0.00,,,0.03,VWS V14.01,2013-08-27 22:53:00,
2013-08-27 18:55:00,81.6,68.7,29.82,NE,55,0.0,1.0,65,0.00,,,0.03,VWS V14.01,2013-08-27 22:55:00,
2013-08-27 18:57:00,81.6,68.7,29.82,NE,55,0.0,1.0,65,0.00,,,0.03,VWS V14.01,2013-08-27 22:57:00,
2013-08-27 18:58:00,81.4,68.5,29.82,NE,55,0.0,1.0,65,0.00,,,0.03,VWS V14.01,2013-08-27 22:58:00,
2013-08-27 19:00:00,81.2,68.3,29.82,NE,55,0.0,1.0,65,0.00,,,0.03,VWS V14.01,2013-08-27 23:00:00,
2013-08-27 19:01:00,81.2,68.8,29.82,NE,55,0.0,1.0,66,0.00,,,0.03,VWS V14.01,2013-08-27 23:01:00,
2013-08-27 19:03:00,81.1,68.7,29.82,NE,55,0.0,1.0,66,0.00,,,0.03,VWS V14.01,2013-08-27 23:03:00,
2013-08-27 19:05:00,80.9,68.5,29.82,NE,55,0.0,1.0,66,0.00,,,0.03,VWS V14.01,2013-08-27 23:05:00,
2013-08-27 19:06:00,80.9,68.5,29.82,NE,55,0.0,0.0,66,0.00,,,0.03,VWS V14.01,2013-08-27 23:06:00,
2013-08-27 19:09:00,80.5,68.5,29.82,NE,55,0.0,0.0,67,0.00,,,0.03,VWS V14.01,2013-08-27 23:09:00,
2013-08-27 19:10:00,80.5,68.5,29.82,NE,55,0.0,0.0,67,0.00,,,0.03,VWS V14.01,2013-08-27 23:10:00,
2013-08-27 19:15:00,80.1,67.7,29.82,NE,55,0.0,0.0,66,0.00,,,0.03,VWS V14.01,2013-08-27 23:15:00,
2013-08-27 19:18:00,79.9,67.5,29.82,NE,55,0.0,0.0,66,0.00,,,0.03,VWS V14.01,2013-08-27 23:18:00,
2013-08-27 19:19:00,79.8,67.4,29.82,NE,55,0.0,0.0,66,0.00,,,0.03,VWS V14.01,2013-08-27 23:19:00,
2013-08-27 19:20:00,79.8,67.4,29.82,NE,55,0.0,0.0,66,0.00,,,0.03,VWS V14.01,2013-08-27 23:20:00,
2013-08-27 19:22:00,79.8,67.4,29.82,NE,55,0.0,0.0,66,0.00,,,0.03,VWS V14.01,2013-08-27 23:22:00,
2013-08-27 19:25:00,79.6,67.2,29.82,NE,55,0.0,0.0,66,0.00,,,0.03,VWS V14.01,2013-08-27 23:25:00,
2013-08-27 19:26:00,79.6,67.2,29.82,NE,55,0.0,0.0,66,0.00,,,0.03,VWS V14.01,2013-08-27 23:26:00,
2013-08-27 19:31:00,79.4,67.1,29.82,NE,55,0.0,0.0,66,0.00,,,0.03,VWS V14.01,2013-08-27 23:31:00,
2013-08-27 19:34:00,79.4,67.1,29.83,NE,55,0.0,0.0,66,0.00,,,0.03,VWS V14.01,2013-08-27 23:34:00,
2013-08-27 19:35:00,79.4,67.5,29.83,NE,55,0.0,0.0,67,0.00,,,0.03,VWS V14.01,2013-08-27 23:35:00,
2013-08-27 19:37:00,79.4,67.5,29.83,NE,55,0.0,0.0,67,0.00,,,0.03,VWS V14.01,2013-08-27 23:37:00,
2013-08-27 19:41:00,79.4,67.5,29.83,NE,55,0.0,0.0,67,0.00,,,0.03,VWS V14.01,2013-08-27 23:41:00,
2013-08-27 19:43:00,79.4,67.5,29.83,NE,55,0.0,0.0,67,0.00,,,0.03,VWS V14.01,2013-08-27 23:43:00,
2013-08-27 19:45:00,79.2,67.3,29.83,NE,55,0.0,0.0,67,0.00,,,0.03,VWS V14.01,2013-08-27 23:45:00,
2013-08-27 19:49:00,79.2,67.3,29.83,NE,55,0.0,0.0,67,0.00,,,0.03,VWS V14.01,2013-08-27 23:49:00,
2013-08-27 19:51:00,79.2,67.3,29.84,NE,55,0.0,0.0,67,0.00,,,0.03,VWS V14.01,2013-08-27 23:51:00,
2013-08-27 19:53:00,79.2,67.3,29.84,NE,55,0.0,0.0,67,0.00,,,0.03,VWS V14.01,2013-08-27 23:53:00,
2013-08-27 19:54:00,79.2,67.3,29.84,NE,55,0.0,0.0,67,0.00,,,0.03,VWS V14.01,2013-08-27 23:54:00,
2013-08-27 19:55:00,79.2,67.3,29.84,NE,55,0.0,0.0,67,0.00,,,0.03,VWS V14.01,2013-08-27 23:55:00,
2013-08-27 20:00:00,79.0,67.1,29.84,NE,55,0.0,0.0,67,0.00,,,0.03,VWS V14.01,2013-08-28 00:00:00,
2013-08-27 20:01:00,79.0,67.1,29.84,NE,55,0.0,0.0,67,0.00,,,0.03,VWS V14.01,2013-08-28 00:01:00,
2013-08-27 20:02:00,79.0,67.1,29.84,NE,55,0.0,0.0,67,0.00,,,0.03,VWS V14.01,2013-08-28 00:02:00,
2013-08-27 20:03:00,79.0,67.1,29.84,NE,55,0.0,0.0,67,0.00,,,0.03,VWS V14.01,2013-08-28 00:03:00,
2013-08-27 20:05:00,78.8,66.9,29.84,NE,55,0.0,0.0,67,0.00,,,0.03,VWS V14.01,2013-08-28 00:05:00,
2013-08-27 20:06:00,78.8,66.9,29.84,NE,55,0.0,0.0,67,0.00,,,0.03,VWS V14.01,2013-08-28 00:06:00,
2013-08-27 20:08:00,78.8,67.4,29.84,NE,55,0.0,0.0,68,0.00,,,0.03,VWS V14.01,2013-08-28 00:08:00,
2013-08-27 20:09:00,78.8,67.4,29.84,NE,55,0.0,0.0,68,0.00,,,0.03,VWS V14.01,2013-08-28 00:09:00,
2013-08-27 20:11:00,78.8,67.4,29.84,NE,55,0.0,0.0,68,0.00,,,0.03,VWS V14.01,2013-08-28 00:11:00,
2013-08-27 20:14:00,78.6,67.2,29.84,NE,55,0.0,0.0,68,0.00,,,0.03,VWS V14.01,2013-08-28 00:14:00,
2013-08-27 20:16:00,78.6,67.2,29.84,NE,55,0.0,0.0,68,0.00,,,0.03,VWS V14.01,2013-08-28 00:16:00,
2013-08-27 20:17:00,78.6,67.2,29.84,NE,55,0.0,0.0,68,0.00,,,0.03,VWS V14.01,2013-08-28 00:17:00,
2013-08-27 20:19:00,78.5,67.1,29.84,NE,55,0.0,0.0,68,0.00,,,0.03,VWS V14.01,2013-08-28 00:19:00,
2013-08-27 20:21:00,78.5,67.1,29.85,NE,55,0.0,0.0,68,0.00,,,0.03,VWS V14.01,2013-08-28 00:21:00,
2013-08-27 20:22:00,78.5,67.1,29.85,NE,55,0.0,0.0,68,0.00,,,0.03,VWS V14.01,2013-08-28 00:22:00,
2013-08-27 20:26:00,78.3,66.9,29.85,NE,56,0.0,0.0,68,0.00,,,0.03,VWS V14.01,2013-08-28 00:26:00,
2013-08-27 20:27:00,78.3,66.9,29.85,NE,56,0.0,0.0,68,0.00,,,0.03,VWS V14.01,2013-08-28 00:27:00,
2013-08-27 20:30:00,78.3,66.9,29.85,SSE,151,2.0,7.0,68,0.00,,,0.03,VWS V14.01,2013-08-28 00:30:00,
2013-08-27 20:32:00,78.3,66.9,29.85,SSE,153,0.0,7.0,68,0.00,,,0.03,VWS V14.01,2013-08-28 00:32:00,
2013-08-27 20:34:00,78.3,66.9,29.85,SSE,153,4.0,7.0,68,0.00,,,0.03,VWS V14.01,2013-08-28 00:34:00,
2013-08-27 20:35:00,78.5,67.1,29.85,SSE,153,0.0,7.0,68,0.00,,,0.03,VWS V14.01,2013-08-28 00:35:00,
2013-08-27 20:39:00,78.5,67.1,29.85,SSE,153,0.0,1.0,68,0.00,,,0.03,VWS V14.01,2013-08-28 00:39:00,
2013-08-27 20:42:00,78.5,67.5,29.85,SSE,154,0.0,4.0,69,0.00,,,0.03,VWS V14.01,2013-08-28 00:42:00,
2013-08-27 20:43:00,78.5,67.5,29.85,SSE,154,0.0,4.0,69,0.00,,,0.03,VWS V14.01,2013-08-28 00:43:00,
2013-08-27 20:44:00,78.5,67.5,29.85,SSE,154,0.0,4.0,69,0.00,,,0.03,VWS V14.01,2013-08-28 00:44:00,
2013-08-27 20:47:00,78.5,67.9,29.85,SSE,159,2.0,5.0,70,0.00,,,0.03,VWS V14.01,2013-08-28 00:47:00,
2013-08-27 20:49:00,78.5,67.9,29.85,SSE,159,5.0,5.0,70,0.00,,,0.03,VWS V14.01,2013-08-28 00:49:00,
2013-08-27 20:50:00,78.5,67.9,29.85,SSE,159,0.0,6.0,70,0.00,,,0.03,VWS V14.01,2013-08-28 00:50:00,
2013-08-27 20:51:00,78.5,67.9,29.85,SSE,159,0.0,6.0,70,0.00,,,0.03,VWS V14.01,2013-08-28 00:51:00,
2013-08-27 20:54:00,78.5,67.9,29.85,SSE,159,0.0,6.0,70,0.00,,,0.03,VWS V14.01,2013-08-28 00:54:00,
2013-08-27 20:55:00,78.5,67.9,29.85,SSE,159,4.0,6.0,70,0.00,,,0.03,VWS V14.01,2013-08-28 00:55:00,
2013-08-27 20:57:00,78.5,67.9,29.85,SSE,159,0.0,7.0,70,0.00,,,0.03,VWS V14.01,2013-08-28 00:57:00,
2013-08-27 21:00:00,78.5,68.3,29.85,South,174,0.0,7.0,71,0.00,,,0.03,VWS V14.01,2013-08-28 01:00:00,
2013-08-27 21:02:00,78.5,68.3,29.85,South,174,0.0,7.0,71,0.00,,,0.03,VWS V14.01,2013-08-28 01:02:00,
2013-08-27 21:04:00,78.5,68.3,29.85,South,174,0.0,7.0,71,0.00,,,0.03,VWS V14.01,2013-08-28 01:04:00,
2013-08-27 21:07:00,78.5,68.3,29.85,South,174,0.0,0.0,71,0.00,,,0.03,VWS V14.01,2013-08-28 01:07:00,
2013-08-27 21:10:00,78.5,68.7,29.85,South,174,0.0,0.0,72,0.00,,,0.03,VWS V14.01,2013-08-28 01:10:00,
2013-08-27 21:11:00,78.5,68.7,29.85,South,174,1.0,7.0,72,0.00,,,0.03,VWS V14.01,2013-08-28 01:11:00,
2013-08-27 21:12:00,78.5,68.7,29.85,South,174,0.0,7.0,72,0.00,,,0.03,VWS V14.01,2013-08-28 01:12:00,
2013-08-27 21:13:00,78.5,68.7,29.85,South,174,0.0,7.0,72,0.00,,,0.03,VWS V14.01,2013-08-28 01:13:00,
2013-08-27 21:17:00,78.5,68.7,29.85,South,180,0.0,7.0,72,0.00,,,0.03,VWS V14.01,2013-08-28 01:17:00,
2013-08-27 21:18:00,78.3,68.5,29.85,South,180,0.0,7.0,72,0.00,,,0.03,VWS V14.01,2013-08-28 01:18:00,
2013-08-27 21:20:00,78.3,68.9,29.85,South,180,0.0,7.0,73,0.00,,,0.03,VWS V14.01,2013-08-28 01:20:00,
2013-08-27 21:21:00,78.3,68.9,29.85,South,180,0.0,7.0,73,0.00,,,0.03,VWS V14.01,2013-08-28 01:21:00,
2013-08-27 21:24:00,78.3,68.9,29.85,South,180,0.0,7.0,73,0.00,,,0.03,VWS V14.01,2013-08-28 01:24:00,
2013-08-27 21:25:00,78.3,68.9,29.85,South,180,0.0,7.0,73,0.00,,,0.03,VWS V14.01,2013-08-28 01:25:00,
2013-08-27 21:26:00,78.3,68.9,29.85,South,180,0.0,7.0,73,0.00,,,0.03,VWS V14.01,2013-08-28 01:26:00,
2013-08-27 21:30:00,78.3,69.3,29.85,South,180,0.0,7.0,74,0.00,,,0.03,VWS V14.01,2013-08-28 01:30:00,
2013-08-27 21:31:00,78.1,69.1,29.85,South,180,0.0,7.0,74,0.00,,,0.03,VWS V14.01,2013-08-28 01:31:00,
2013-08-27 21:35:00,78.1,69.5,29.85,South,180,0.0,7.0,75,0.00,,,0.03,VWS V14.01,2013-08-28 01:35:00,
2013-08-27 21:36:00,78.1,69.5,29.85,South,180,3.0,5.0,75,0.00,,,0.03,VWS V14.01,2013-08-28 01:36:00,
2013-08-27 21:38:00,77.9,69.7,29.85,South,180,0.0,5.0,76,0.00,,,0.03,VWS V14.01,2013-08-28 01:38:00,
2013-08-27 21:41:00,77.7,69.5,29.85,South,180,0.0,5.0,76,0.00,,,0.03,VWS V14.01,2013-08-28 01:41:00,
2013-08-27 21:42:00,77.7,69.5,29.85,South,180,0.0,5.0,76,0.00,,,0.03,VWS V14.01,2013-08-28 01:42:00,
2013-08-27 21:43:00,77.7,69.5,29.85,South,180,0.0,5.0,76,0.00,,,0.03,VWS V14.01,2013-08-28 01:43:00,
2013-08-27 21:48:00,77.7,70.3,29.85,South,175,0.0,5.0,78,0.00,,,0.03,VWS V14.01,2013-08-28 01:48:00,
2013-08-27 21:49:00,77.7,70.3,29.85,SSE,161,0.0,5.0,78,0.00,,,0.03,VWS V14.01,2013-08-28 01:49:00,
2013-08-27 21:50:00,77.7,70.7,29.85,SSE,161,0.0,5.0,79,0.00,,,0.03,VWS V14.01,2013-08-28 01:50:00,
2013-08-27 21:54:00,77.4,70.4,29.85,SSE,162,5.0,5.0,79,0.00,,,0.03,VWS V14.01,2013-08-28 01:54:00,
2013-08-27 21:55:00,77.4,70.4,29.85,SSE,167,6.0,7.0,79,0.00,,,0.03,VWS V14.01,2013-08-28 01:55:00,
2013-08-27 21:59:00,77.2,70.6,29.85,SSE,167,0.0,7.0,80,0.00,,,0.03,VWS V14.01,2013-08-28 01:59:00,
2013-08-27 22:01:00,77.0,70.4,29.85,SSE,167,0.0,7.0,80,0.00,,,0.03,VWS V14.01,2013-08-28 02:01:00,
2013-08-27 22:02:00,77.0,70.4,29.85,SSE,167,0.0,7.0,80,0.00,,,0.03,VWS V14.01,2013-08-28 02:02:00,
2013-08-27 22:03:00,76.8,70.2,29.85,SSE,167,0.0,7.0,80,0.00,,,0.03,VWS V14.01,2013-08-28 02:03:00,
2013-08-27 22:04:00,76.8,70.2,29.85,SSE,167,1.0,7.0,80,0.00,,,0.03,VWS V14.01,2013-08-28 02:04:00,
2013-08-27 22:05:00,76.8,70.2,29.86,SSE,167,0.0,7.0,80,0.00,,,0.03,VWS V14.01,2013-08-28 02:05:00,
2013-08-27 22:06:00,76.7,70.1,29.86,SSE,167,0.0,0.0,80,0.00,,,0.03,VWS V14.01,2013-08-28 02:06:00,
2013-08-27 22:08:00,76.7,70.1,29.86,SSE,167,0.0,0.0,80,0.00,,,0.03,VWS V14.01,2013-08-28 02:08:00,
2013-08-27 22:09:00,76.5,69.9,29.86,SSE,167,0.0,0.0,80,0.00,,,0.03,VWS V14.01,2013-08-28 02:09:00,
2013-08-27 22:11:00,76.5,69.9,29.86,SSE,167,0.0,0.0,80,0.00,,,0.03,VWS V14.01,2013-08-28 02:11:00,
2013-08-27 22:12:00,76.5,69.9,29.86,SSE,167,0.0,0.0,80,0.00,,,0.03,VWS V14.01,2013-08-28 02:12:00,
2013-08-27 22:13:00,76.5,69.9,29.86,SSE,167,0.0,0.0,80,0.00,,,0.03,VWS V14.01,2013-08-28 02:13:00,
2013-08-27 22:16:00,76.3,69.7,29.86,SSE,167,0.0,5.0,80,0.00,,,0.03,VWS V14.01,2013-08-28 02:16:00,
2013-08-27 22:17:00,76.3,69.7,29.86,SSE,167,0.0,5.0,80,0.00,,,0.03,VWS V14.01,2013-08-28 02:17:00,
2013-08-27 22:18:00,76.1,69.5,29.86,SSE,167,0.0,5.0,80,0.00,,,0.03,VWS V14.01,2013-08-28 02:18:00,
2013-08-27 22:20:00,76.1,69.5,29.87,SSE,167,0.0,5.0,80,0.00,,,0.03,VWS V14.01,2013-08-28 02:20:00,
2013-08-27 22:23:00,76.1,69.8,29.87,SSE,167,0.0,5.0,81,0.00,,,0.03,VWS V14.01,2013-08-28 02:23:00,
2013-08-27 22:24:00,76.0,69.8,29.87,SSE,167,0.0,5.0,81,0.00,,,0.03,VWS V14.01,2013-08-28 02:24:00,
2013-08-27 22:26:00,76.0,69.8,29.87,SSE,167,0.0,5.0,81,0.00,,,0.03,VWS V14.01,2013-08-28 02:26:00,
2013-08-27 22:29:00,76.0,69.8,29.87,SSE,167,0.0,5.0,81,0.00,,,0.03,VWS V14.01,2013-08-28 02:29:00,
2013-08-27 22:30:00,76.0,69.8,29.87,SSE,167,0.0,5.0,81,0.00,,,0.03,VWS V14.01,2013-08-28 02:30:00,
2013-08-27 22:34:00,75.8,69.6,29.87,SSE,167,0.0,5.0,81,0.00,,,0.03,VWS V14.01,2013-08-28 02:34:00,
2013-08-27 22:36:00,75.8,69.9,29.87,SSE,167,0.0,0.0,82,0.00,,,0.03,VWS V14.01,2013-08-28 02:36:00,
2013-08-27 22:39:00,75.8,69.9,29.87,SSE,167,0.0,0.0,82,0.00,,,0.03,VWS V14.01,2013-08-28 02:39:00,
2013-08-27 22:40:00,75.8,69.9,29.87,SSE,167,0.0,0.0,82,0.00,,,0.03,VWS V14.01,2013-08-28 02:40:00,
2013-08-27 22:41:00,75.8,69.9,29.87,SSE,167,1.0,1.0,82,0.00,,,0.03,VWS V14.01,2013-08-28 02:41:00,
2013-08-27 22:42:00,75.8,69.9,29.87,SSE,167,4.0,5.0,82,0.00,,,0.03,VWS V14.01,2013-08-28 02:42:00,
2013-08-27 22:46:00,75.8,69.9,29.87,SSE,167,0.0,5.0,82,0.00,,,0.03,VWS V14.01,2013-08-28 02:46:00,
2013-08-27 22:48:00,75.6,69.7,29.87,SSE,167,0.0,5.0,82,0.00,,,0.03,VWS V14.01,2013-08-28 02:48:00,
2013-08-27 22:50:00,75.6,69.7,29.87,SSE,167,0.0,5.0,82,0.00,,,0.03,VWS V14.01,2013-08-28 02:50:00,
2013-08-27 22:51:00,75.6,69.7,29.87,SSE,167,0.0,5.0,82,0.00,,,0.03,VWS V14.01,2013-08-28 02:51:00,
2013-08-27 22:53:00,75.6,69.7,29.87,SSE,167,0.0,5.0,82,0.00,,,0.03,VWS V14.01,2013-08-28 02:53:00,
2013-08-27 22:54:00,75.6,70.1,29.87,SSE,167,0.0,5.0,83,0.00,,,0.03,VWS V14.01,2013-08-28 02:54:00,
2013-08-27 22:56:00,75.6,70.1,29.87,SSE,167,0.0,5.0,83,0.00,,,0.03,VWS V14.01,2013-08-28 02:56:00,
2013-08-27 22:57:00,75.6,70.1,29.87,SSE,167,0.0,5.0,83,0.00,,,0.03,VWS V14.01,2013-08-28 02:57:00,
2013-08-27 22:58:00,75.6,70.1,29.87,SSE,167,0.0,5.0,83,0.00,,,0.03,VWS V14.01,2013-08-28 02:58:00,
2013-08-27 23:00:00,75.6,70.1,29.87,SSE,167,0.0,5.0,83,0.00,,,0.03,VWS V14.01,2013-08-28 03:00:00,
2013-08-27 23:02:00,75.6,70.1,29.87,SSE,167,0.0,5.0,83,0.00,,,0.03,VWS V14.01,2013-08-28 03:02:00,
2013-08-27 23:03:00,75.6,70.1,29.87,SSE,167,0.0,5.0,83,0.00,,,0.03,VWS V14.01,2013-08-28 03:03:00,
2013-08-27 23:05:00,75.6,70.1,29.87,SSE,167,0.0,5.0,83,0.00,,,0.03,VWS V14.01,2013-08-28 03:05:00,
2013-08-27 23:08:00,75.6,70.1,29.87,SSE,167,0.0,0.0,83,0.00,,,0.03,VWS V14.01,2013-08-28 03:08:00,
2013-08-27 23:11:00,75.6,70.4,29.87,SSE,167,0.0,5.0,84,0.00,,,0.03,VWS V14.01,2013-08-28 03:11:00,
2013-08-27 23:14:00,75.6,70.4,29.87,SSE,167,0.0,5.0,84,0.00,,,0.03,VWS V14.01,2013-08-28 03:14:00,
2013-08-27 23:15:00,75.6,70.4,29.87,SSE,167,0.0,5.0,84,0.00,,,0.03,VWS V14.01,2013-08-28 03:15:00,
2013-08-27 23:16:00,75.6,70.4,29.87,SSE,167,0.0,5.0,84,0.00,,,0.03,VWS V14.01,2013-08-28 03:16:00,
2013-08-27 23:20:00,75.4,70.2,29.87,SSE,167,0.0,5.0,84,0.00,,,0.03,VWS V14.01,2013-08-28 03:20:00,
2013-08-27 23:22:00,75.4,70.2,29.87,SSE,167,2.0,6.0,84,0.00,,,0.03,VWS V14.01,2013-08-28 03:22:00,
2013-08-27 23:27:00,75.4,70.2,29.87,SSE,167,0.0,6.0,84,0.00,,,0.03,VWS V14.01,2013-08-28 03:27:00,
2013-08-27 23:28:00,75.4,70.2,29.87,SSE,167,0.0,6.0,84,0.00,,,0.03,VWS V14.01,2013-08-28 03:28:00,
2013-08-27 23:31:00,75.4,70.2,29.87,SSE,167,0.0,6.0,84,0.00,,,0.03,VWS V14.01,2013-08-28 03:31:00,
2013-08-27 23:34:00,75.4,70.2,29.87,SSE,167,0.0,6.0,84,0.00,,,0.03,VWS V14.01,2013-08-28 03:34:00,
2013-08-27 23:35:00,75.4,70.2,29.87,SSE,167,0.0,6.0,84,0.00,,,0.03,VWS V14.01,2013-08-28 03:35:00,
2013-08-27 23:36:00,75.4,70.2,29.87,SSE,167,0.0,0.0,84,0.00,,,0.03,VWS V14.01,2013-08-28 03:36:00,
2013-08-27 23:40:00,75.4,70.2,29.87,SSE,167,0.0,0.0,84,0.00,,,0.03,VWS V14.01,2013-08-28 03:40:00,
2013-08-27 23:41:00,75.4,70.2,29.87,SSE,167,0.0,0.0,84,0.00,,,0.03,VWS V14.01,2013-08-28 03:41:00,
2013-08-27 23:42:00,75.4,70.2,29.87,SSE,167,0.0,0.0,84,0.00,,,0.03,VWS V14.01,2013-08-28 03:42:00,
2013-08-27 23:43:00,75.4,70.2,29.87,SSE,167,0.0,0.0,84,0.00,,,0.03,VWS V14.01,2013-08-28 03:43:00,
2013-08-27 23:47:00,75.4,70.6,29.87,SSE,167,0.0,0.0,85,0.00,,,0.03,VWS V14.01,2013-08-28 03:47:00,
2013-08-27 23:48:00,75.3,70.5,29.87,SSE,167,0.0,0.0,85,0.00,,,0.03,VWS V14.01,2013-08-28 03:48:00,
2013-08-27 23:53:00,75.3,70.5,29.87,SSE,167,0.0,1.0,85,0.00,,,0.03,VWS V14.01,2013-08-28 03:53:00,
2013-08-27 23:54:00,75.3,70.5,29.87,SSE,167,0.0,1.0,85,0.00,,,0.03,VWS V14.01,2013-08-28 03:54:00,
2013-08-27 23:56:00,75.3,70.5,29.87,SSE,167,0.0,1.0,85,0.00,,,0.03,VWS V14.01,2013-08-28 03:56:00,
2013-08-27 23:58:00,75.3,70.5,29.87,SSE,167,0.0,1.0,85,0.00,,,0.03,VWS V14.01,2013-08-28 03:58:00,